DL9BGG-13 Weather Reports


time (UTC)temp
C
wind
direction
speed
KPH
gust
KPH
rain 1hr
cm
rain 24hr
cm
rain mn
cm
humidity
%
barometer
mb
20260508110620 19 90 24.1 0.0 0.00 0.00 0.00 35 1065.3
20260508110451 19 90 11.3 0.0 0.00 0.00 0.00 35 1065.4
20260508110332 19 135 9.7 0.0 0.00 0.00 0.00 34 1065.4
20260508110227 19 90 11.3 0.0 0.00 0.00 0.00 34 1065.4
20260508110120 19 90 22.5 0.0 0.00 0.00 0.00 34 1065.4
20260508110007 19 135 11.3 0.0 0.00 0.00 0.00 33 1065.4
20260508105853 19 90 27.4 0.0 0.00 0.00 0.00 34 1065.4
20260508105734 19 45 9.7 0.0 0.00 0.00 0.00 35 1065.4
20260508105619 19 112 20.9 0.0 0.00 0.00 0.00 35 1065.4
20260508105450 18 135 14.5 0.0 0.00 0.00 0.00 36 1065.3
20260508105336 18 22 0.0 0.0 0.00 0.00 0.00 35 1065.3
20260508105218 18 112 11.3 0.0 0.00 0.00 0.00 34 1065.3
20260508105110 18 135 11.3 0.0 0.00 0.00 0.00 35 1065.3
20260508104949 18 135 20.9 0.0 0.00 0.00 0.00 35 1065.3
20260508104820 18 135 8.0 0.0 0.00 0.00 0.00 34 1065.4
20260508104707 18 135 9.7 0.0 0.00 0.00 0.00 35 1065.4
20260508104539 18 135 9.7 0.0 0.00 0.00 0.00 35 1065.4
20260508104424 18 135 12.9 0.0 0.00 0.00 0.00 34 1065.3
20260508104314 18 90 22.5 0.0 0.00 0.00 0.00 34 1065.3
20260508104207 18 135 14.5 0.0 0.00 0.00 0.00 34 1065.4
20260508104054 19 157 11.3 0.0 0.00 0.00 0.00 33 1065.3
20260508103933 19 135 16.1 0.0 0.00 0.00 0.00 35 1065.4
20260508103827 18 135 9.7 0.0 0.00 0.00 0.00 34 1065.3
20260508103700 19 112 0.0 0.0 0.00 0.00 0.00 33 1065.4
20260508103555 19 112 16.1 0.0 0.00 0.00 0.00 34 1065.3
20260508103448 19 112 0.0 0.0 0.00 0.00 0.00 35 1065.3
20260508103328 19 135 8.0 0.0 0.00 0.00 0.00 34 1065.3
20260508103214 19 135 14.5 0.0 0.00 0.00 0.00 35 1065.3
20260508103111 19 112 9.7 0.0 0.00 0.00 0.00 34 1065.3
20260508103005 19 90 17.7 0.0 0.00 0.00 0.00 34 1065.3
20260508102850 19 112 16.1 0.0 0.00 0.00 0.00 34 1065.3
20260508102737 18 135 12.9 0.0 0.00 0.00 0.00 34 1065.3
20260508102625 18 45 9.7 0.0 0.00 0.00 0.00 35 1065.4
20260508102518 18 135 24.1 0.0 0.00 0.00 0.00 34 1065.3
20260508102406 18 67 9.7 0.0 0.00 0.00 0.00 34 1065.3
20260508102253 18 135 12.9 0.0 0.00 0.00 0.00 35 1065.3
20260508102140 18 135 11.3 0.0 0.00 0.00 0.00 35 1065.4
20260508102035 18 45 9.7 0.0 0.00 0.00 0.00 35 1065.3
20260508101921 18 135 9.7 0.0 0.00 0.00 0.00 35 1065.4
20260508101801 18 112 14.5 0.0 0.00 0.00 0.00 36 1065.4
20260508101649 18 135 16.1 0.0 0.00 0.00 0.00 35 1065.3
20260508101533 18 180 17.7 0.0 0.00 0.00 0.00 35 1065.4
20260508101413 18 135 14.5 0.0 0.00 0.00 0.00 36 1065.4
20260508101259 18 90 8.0 0.0 0.00 0.00 0.00 36 1065.4
20260508101131 18 157 14.5 0.0 0.00 0.00 0.00 36 1065.4
20260508101019 18 112 14.5 0.0 0.00 0.00 0.00 35 1065.4
20260508100915 18 90 12.9 0.0 0.00 0.00 0.00 35 1065.4
20260508100755 18 112 6.4 0.0 0.00 0.00 0.00 35 1065.5
20260508100650 18 90 11.3 0.0 0.00 0.00 0.00 35 1065.4
20260508100538 18 135 17.7 0.0 0.00 0.00 0.00 35 1065.4
20260508100430 18 112 12.9 0.0 0.00 0.00 0.00 34 1065.4
20260508100318 18 157 19.3 0.0 0.00 0.00 0.00 34 1065.4
20260508100205 18 112 9.7 0.0 0.00 0.00 0.00 34 1065.4
20260508100054 18 135 20.9 0.0 0.00 0.00 0.00 35 1065.5
20260508095939 18 135 24.1 0.0 0.00 0.00 0.00 35 1065.4
20260508095826 18 135 19.3 0.0 0.00 0.00 0.00 36 1065.3
20260508095722 18 112 8.0 0.0 0.00 0.00 0.00 36 1065.4
20260508095617 18 135 9.7 0.0 0.00 0.00 0.00 36 1065.4
20260508095512 18 135 24.1 0.0 0.00 0.00 0.00 36 1065.4
20260508095407 18 157 14.5 0.0 0.00 0.00 0.00 36 1065.4
20260508095306 18 135 12.9 0.0 0.00 0.00 0.00 35 1065.4
20260508095150 18 135 8.0 0.0 0.00 0.00 0.00 35 1065.4
20260508095043 18 135 20.9 0.0 0.00 0.00 0.00 35 1065.5
20260508094923 18 135 22.5 0.0 0.00 0.00 0.00 35 1065.4
20260508094811 18 90 11.3 0.0 0.00 0.00 0.00 34 1065.4
20260508094706 18 157 24.1 0.0 0.00 0.00 0.00 35 1065.4
20260508094601 18 112 19.3 0.0 0.00 0.00 0.00 35 1065.3
20260508094449 18 135 0.0 0.0 0.00 0.00 0.00 35 1065.3
20260508094334 18 112 8.0 0.0 0.00 0.00 0.00 35 1065.4
20260508094212 18 112 17.7 0.0 0.00 0.00 0.00 35 1065.4
20260508094043 18 112 14.5 0.0 0.00 0.00 0.00 34 1065.6
20260508093930 19 135 9.7 0.0 0.00 0.00 0.00 35 1065.5
20260508093818 19 112 9.7 0.0 0.00 0.00 0.00 35 1065.5
20260508093712 19 112 19.3 0.0 0.00 0.00 0.00 34 1065.5
20260508093554 19 90 16.1 0.0 0.00 0.00 0.00 33 1065.6
20260508093448 19 112 9.7 0.0 0.00 0.00 0.00 35 1065.6
20260508093341 19 112 9.7 0.0 0.00 0.00 0.00 36 1065.6
20260508093228 19 67 11.3 0.0 0.00 0.00 0.00 36 1065.6
20260508093107 19 45 0.0 0.0 0.00 0.00 0.00 36 1065.6
20260508092946 19 90 9.7 0.0 0.00 0.00 0.00 36 1065.6
20260508092840 19 112 16.1 0.0 0.00 0.00 0.00 37 1065.6
20260508092720 19 112 0.0 0.0 0.00 0.00 0.00 36 1065.7
20260508092607 19 112 25.7 0.0 0.00 0.00 0.00 36 1065.6
20260508092454 19 90 19.3 0.0 0.00 0.00 0.00 37 1065.6
20260508092348 19 135 11.3 0.0 0.00 0.00 0.00 36 1065.7
20260508092235 19 135 3.2 0.0 0.00 0.00 0.00 36 1065.6
20260508092113 19 112 9.7 0.0 0.00 0.00 0.00 37 1065.6
20260508092001 19 90 9.7 0.0 0.00 0.00 0.00 38 1065.6
20260508091855 19 112 17.7 0.0 0.00 0.00 0.00 38 1065.6
20260508091743 19 157 17.7 0.0 0.00 0.00 0.00 38 1065.6
20260508091629 19 135 14.5 0.0 0.00 0.00 0.00 39 1065.6
20260508091509 20 157 14.5 0.0 0.00 0.00 0.00 38 1065.7
20260508091402 20 112 11.3 0.0 0.00 0.00 0.00 38 1065.6
20260508091243 20 135 11.3 0.0 0.00 0.00 0.00 39 1065.6
20260508091140 20 112 16.1 0.0 0.00 0.00 0.00 39 1065.6
20260508091032 20 112 9.7 0.0 0.00 0.00 0.00 41 1065.6
20260508090919 19 157 3.2 0.0 0.00 0.00 0.00 41 1065.6
20260508090805 19 157 0.0 0.0 0.00 0.00 0.00 41 1065.6
20260508090652 19 135 14.5 0.0 0.00 0.00 0.00 42 1065.6
20260508090533 19 90 9.7 0.0 0.00 0.00 0.00 43 1065.6
20260508090429 18 135 16.1 0.0 0.00 0.00 0.00 43 1065.6
20260508090321 18 112 9.7 0.0 0.00 0.00 0.00 43 1065.6
20260508090209 18 135 0.0 0.0 0.00 0.00 0.00 43 1065.6
20260508090055 18 157 0.0 0.0 0.00 0.00 0.00 42 1065.6
20260508085935 18 135 12.9 0.0 0.00 0.00 0.00 41 1065.7
20260508085821 18 90 6.4 0.0 0.00 0.00 0.00 43 1065.7
20260508085703 18 135 16.1 0.0 0.00 0.00 0.00 45 1065.7
20260508085555 18 112 12.9 0.0 0.00 0.00 0.00 46 1065.6
20260508085443 18 112 17.7 0.0 0.00 0.00 0.00 44 1065.6
20260508085321 18 135 11.3 0.0 0.00 0.00 0.00 44 1065.6
20260508085208 18 180 19.3 0.0 0.00 0.00 0.00 47 1065.6
20260508085057 18 157 9.7 0.0 0.00 0.00 0.00 46 1065.7
20260508084950 18 135 9.7 0.0 0.00 0.00 0.00 47 1065.7
20260508084837 18 157 8.0 0.0 0.00 0.00 0.00 47 1065.7
20260508084726 18 135 16.1 0.0 0.00 0.00 0.00 47 1065.7
20260508084621 18 90 14.5 0.0 0.00 0.00 0.00 47 1065.8
20260508084513 18 135 6.4 0.0 0.00 0.00 0.00 47 1065.7
20260508084354 18 112 8.0 0.0 0.00 0.00 0.00 46 1065.8
20260508084247 18 112 9.7 0.0 0.00 0.00 0.00 45 1065.7
20260508084134 18 90 19.3 0.0 0.00 0.00 0.00 45 1065.7
20260508084014 18 90 12.9 0.0 0.00 0.00 0.00 45 1065.8
20260508083859 18 90 14.5 0.0 0.00 0.00 0.00 45 1065.8
20260508083740 18 135 11.3 0.0 0.00 0.00 0.00 45 1065.8
20260508083625 18 135 6.4 0.0 0.00 0.00 0.00 45 1065.8
20260508083511 19 135 14.5 0.0 0.00 0.00 0.00 45 1065.8
20260508083351 19 135 12.9 0.0 0.00 0.00 0.00 46 1065.7
20260508083230 19 112 8.0 0.0 0.00 0.00 0.00 47 1065.8
20260508083124 19 90 0.0 0.0 0.00 0.00 0.00 47 1065.8
20260508083011 18 67 0.0 0.0 0.00 0.00 0.00 47 1065.8
20260508082850 18 22 8.0 0.0 0.00 0.00 0.00 47 1065.7
20260508082729 18 112 9.7 0.0 0.00 0.00 0.00 47 1065.8
20260508082619 19 112 12.9 0.0 0.00 0.00 0.00 47 1065.7
20260508082512 19 112 16.1 0.0 0.00 0.00 0.00 47 1065.7
20260508082400 18 90 8.0 0.0 0.00 0.00 0.00 47 1065.8
20260508082253 18 135 9.7 0.0 0.00 0.00 0.00 48 1065.8
20260508082131 18 112 9.7 0.0 0.00 0.00 0.00 48 1065.7
20260508082012 18 112 14.5 0.0 0.00 0.00 0.00 47 1065.7
20260508081857 18 135 19.3 0.0 0.00 0.00 0.00 48 1065.7
20260508081745 18 135 8.0 0.0 0.00 0.00 0.00 47 1065.7
20260508081631 18 157 14.5 0.0 0.00 0.00 0.00 48 1065.7
20260508081512 18 112 9.7 0.0 0.00 0.00 0.00 48 1065.7
20260508081405 18 135 8.0 0.0 0.00 0.00 0.00 48 1065.7
20260508081252 18 135 8.0 0.0 0.00 0.00 0.00 47 1065.7
20260508081138 18 180 14.5 0.0 0.00 0.00 0.00 47 1065.7
20260508081018 18 180 9.7 0.0 0.00 0.00 0.00 47 1065.7
20260508080913 18 135 14.5 0.0 0.00 0.00 0.00 46 1065.7
20260508080759 18 135 11.3 0.0 0.00 0.00 0.00 45 1065.7
20260508080640 18 157 9.7 0.0 0.00 0.00 0.00 45 1065.7
20260508080532 18 180 8.0 0.0 0.00 0.00 0.00 45 1065.6
20260508080411 18 135 11.3 0.0 0.00 0.00 0.00 45 1065.7
20260508080300 18 135 9.7 0.0 0.00 0.00 0.00 45 1065.7
20260508080154 18 157 17.7 0.0 0.00 0.00 0.00 45 1065.7
20260508080040 18 135 9.7 0.0 0.00 0.00 0.00 46 1065.7
20260508075920 18 135 6.4 0.0 0.00 0.00 0.00 46 1065.6
20260508075814 18 135 11.3 0.0 0.00 0.00 0.00 46 1065.7
20260508075710 18 135 8.0 0.0 0.00 0.00 0.00 46 1065.8
20260508075605 18 135 11.3 0.0 0.00 0.00 0.00 46 1065.7
20260508075454 18 135 16.1 0.0 0.00 0.00 0.00 46 1065.7
20260508075338 18 112 9.7 0.0 0.00 0.00 0.00 46 1065.7
20260508075217 18 157 9.7 0.0 0.00 0.00 0.00 46 1065.6
20260508075112 18 157 12.9 0.0 0.00 0.00 0.00 44 1065.7
20260508075007 18 157 8.0 0.0 0.00 0.00 0.00 46 1065.7
20260508074853 18 135 14.5 0.0 0.00 0.00 0.00 46 1065.6
20260508074742 18 135 14.5 0.0 0.00 0.00 0.00 47 1065.7
20260508074635 18 112 12.9 0.0 0.00 0.00 0.00 47 1065.7
20260508074523 18 112 14.5 0.0 0.00 0.00 0.00 49 1065.7
20260508074400 18 112 16.1 0.0 0.00 0.00 0.00 49 1065.7
20260508074240 18 135 4.8 0.0 0.00 0.00 0.00 49 1065.7
20260508074127 18 112 12.9 0.0 0.00 0.00 0.00 48 1065.6
20260508074008 18 112 16.1 0.0 0.00 0.00 0.00 49 1065.6
20260508073856 18 112 8.0 0.0 0.00 0.00 0.00 48 1065.7
20260508073738 18 135 16.1 0.0 0.00 0.00 0.00 48 1065.7
20260508073620 18 157 8.0 0.0 0.00 0.00 0.00 48 1065.6
20260508073515 18 157 16.1 0.0 0.00 0.00 0.00 47 1065.7
20260508073408 18 157 14.5 0.0 0.00 0.00 0.00 48 1065.7
20260508073255 18 157 6.4 0.0 0.00 0.00 0.00 47 1065.6
20260508073142 18 157 12.9 0.0 0.00 0.00 0.00 48 1065.6
20260508073030 18 135 8.0 0.0 0.00 0.00 0.00 48 1065.6
20260508072915 18 135 9.7 0.0 0.00 0.00 0.00 49 1065.6
20260508072802 18 112 8.0 0.0 0.00 0.00 0.00 50 1065.5
20260508072649 18 67 6.4 0.0 0.00 0.00 0.00 49 1065.5
20260508072543 18 135 11.3 0.0 0.00 0.00 0.00 48 1065.6
20260508072421 18 135 8.0 0.0 0.00 0.00 0.00 48 1065.5
20260508072309 19 135 16.1 0.0 0.00 0.00 0.00 47 1065.5
20260508072206 19 112 9.7 0.0 0.00 0.00 0.00 49 1065.5
20260508072057 19 135 4.8 0.0 0.00 0.00 0.00 51 1065.5
20260508071938 19 135 9.7 0.0 0.00 0.00 0.00 51 1065.5
20260508071833 19 112 9.7 0.0 0.00 0.00 0.00 49 1065.5
20260508071726 19 135 9.7 0.0 0.00 0.00 0.00 50 1065.6
20260508071614 19 135 6.4 0.0 0.00 0.00 0.00 51 1065.6
20260508071511 19 180 4.8 0.0 0.00 0.00 0.00 50 1065.6
20260508071405 19 135 6.4 0.0 0.00 0.00 0.00 50 1065.5
20260508071250 19 90 9.7 0.0 0.00 0.00 0.00 52 1065.5
20260508071138 19 135 0.0 0.0 0.00 0.00 0.00 51 1065.5
20260508071032 19 135 4.8 0.0 0.00 0.00 0.00 50 1065.5
20260508070919 19 135 9.7 0.0 0.00 0.00 0.00 50 1065.5
20260508070807 19 112 6.4 0.0 0.00 0.00 0.00 51 1065.5
20260508070702 19 135 0.0 0.0 0.00 0.00 0.00 51 1065.4
20260508070549 19 112 11.3 0.0 0.00 0.00 0.00 51 1065.5
20260508070443 19 112 4.8 0.0 0.00 0.00 0.00 52 1065.5
20260508070330 18 135 9.7 0.0 0.00 0.00 0.00 52 1065.4
20260508070218 18 157 4.8 0.0 0.00 0.00 0.00 52 1065.4
20260508070105 18 157 6.4 0.0 0.00 0.00 0.00 51 1065.4
20260508065950 18 135 9.7 0.0 0.00 0.00 0.00 51 1065.3
20260508065831 19 112 6.4 0.0 0.00 0.00 0.00 51 1065.3
20260508065716 19 135 11.3 0.0 0.00 0.00 0.00 52 1065.3
20260508065603 19 135 4.8 0.0 0.00 0.00 0.00 53 1065.4
20260508065441 18 135 3.2 0.0 0.00 0.00 0.00 53 1065.3
20260508065321 18 112 6.4 0.0 0.00 0.00 0.00 54 1065.3
20260508065208 18 112 3.2 0.0 0.00 0.00 0.00 54 1065.3
20260508065104 18 135 4.8 0.0 0.00 0.00 0.00 53 1065.1
20260508064958 18 135 8.0 0.0 0.00 0.00 0.00 54 1065.2
20260508064852 18 135 4.8 0.0 0.00 0.00 0.00 53 1065.3
20260508064723 18 135 9.7 0.0 0.00 0.00 0.00 52 1065.2
20260508064555 18 157 8.0 0.0 0.00 0.00 0.00 53 1065.2
20260508064449 18 135 4.8 0.0 0.00 0.00 0.00 55 1065.1
20260508064335 18 135 3.2 0.0 0.00 0.00 0.00 54 1065.2
20260508064214 18 112 6.4 0.0 0.00 0.00 0.00 54 1065.2
20260508064101 18 112 4.8 0.0 0.00 0.00 0.00 56 1065.1
20260508063939 18 135 0.0 0.0 0.00 0.00 0.00 57 1065.1
20260508063826 18 135 4.8 0.0 0.00 0.00 0.00 56 1065.1
20260508063708 17 135 4.8 0.0 0.00 0.00 0.00 56 1065.1
20260508063602 17 135 8.0 0.0 0.00 0.00 0.00 56 1065.1
20260508063458 17 135 6.4 0.0 0.00 0.00 0.00 57 1065.1
20260508063352 17 157 0.0 0.0 0.00 0.00 0.00 57 1065.1
20260508063245 17 157 0.0 0.0 0.00 0.00 0.00 57 1065.1
20260508063132 17 157 0.0 0.0 0.00 0.00 0.00 58 1065.1
20260508063027 17 157 0.0 0.0 0.00 0.00 0.00 59 1065.1
20260508062858 17 157 3.2 0.0 0.00 0.00 0.00 58 1065.1
20260508062745 17 157 4.8 0.0 0.00 0.00 0.00 59 1065.1
20260508062633 16 157 4.8 0.0 0.00 0.00 0.00 59 1065.1
20260508062511 16 157 3.2 0.0 0.00 0.00 0.00 59 1065.1
20260508062358 16 157 6.4 0.0 0.00 0.00 0.00 60 1065.2
20260508062252 16 157 4.8 0.0 0.00 0.00 0.00 59 1065.1
20260508062131 16 157 6.4 0.0 0.00 0.00 0.00 59 1065.1
20260508062010 16 157 6.4 0.0 0.00 0.00 0.00 59 1065.1
20260508061856 16 157 4.8 0.0 0.00 0.00 0.00 59 1065.1
20260508061746 16 157 6.4 0.0 0.00 0.00 0.00 59 1065.1
20260508061639 16 157 8.0 0.0 0.00 0.00 0.00 59 1065.1
20260508061534 16 157 3.2 0.0 0.00 0.00 0.00 59 1065.1
20260508061421 16 157 4.8 0.0 0.00 0.00 0.00 59 1065.1
20260508061259 16 157 3.2 0.0 0.00 0.00 0.00 59 1065.1
20260508061138 16 157 6.4 0.0 0.00 0.00 0.00 60 1065.1
20260508061009 16 157 3.2 0.0 0.00 0.00 0.00 60 1065.1
20260508060856 16 157 6.4 0.0 0.00 0.00 0.00 61 1065.1
20260508060743 16 157 0.0 0.0 0.00 0.00 0.00 62 1065.1
20260508060637 16 157 0.0 0.0 0.00 0.00 0.00 62 1065.1
20260508060517 16 157 3.2 0.0 0.00 0.00 0.00 60 1065.1
20260508060414 16 157 8.0 0.0 0.00 0.00 0.00 61 1065.1
20260508060306 16 157 8.0 0.0 0.00 0.00 0.00 62 1065.1
20260508060145 16 157 0.0 0.0 0.00 0.00 0.00 63 1065.1
20260508060026 16 157 0.0 0.0 0.00 0.00 0.00 64 1065.1
20260508055919 16 157 0.0 0.0 0.00 0.00 0.00 65 1065.1
20260508055805 16 157 0.0 0.0 0.00 0.00 0.00 67 1065.0
20260508055653 16 157 0.0 0.0 0.00 0.00 0.00 66 1065.1
20260508055548 16 157 0.0 0.0 0.00 0.00 0.00 67 1065.1
20260508055442 16 157 0.0 0.0 0.00 0.00 0.00 68 1065.0
20260508055321 16 157 0.0 0.0 0.00 0.00 0.00 70 1065.1
20260508055209 15 157 0.0 0.0 0.00 0.00 0.00 69 1065.0
20260508055103 15 157 0.0 0.0 0.00 0.00 0.00 71 1065.0
20260508054950 15 157 0.0 0.0 0.00 0.00 0.00 72 1065.1
20260508054829 15 157 0.0 0.0 0.00 0.00 0.00 72 1065.0
20260508054715 15 157 0.0 0.0 0.00 0.00 0.00 73 1065.0
20260508054602 15 157 0.0 0.0 0.00 0.00 0.00 73 1065.0
20260508054451 15 157 0.0 0.0 0.00 0.00 0.00 73 1065.0
20260508054344 15 157 0.0 0.0 0.00 0.00 0.00 73 1065.0
20260508054230 15 157 0.0 0.0 0.00 0.00 0.00 73 1065.0
20260508054112 15 157 0.0 0.0 0.00 0.00 0.00 75 1065.0
20260508054004 15 157 0.0 0.0 0.00 0.00 0.00 75 1065.0
20260508053835 16 157 0.0 0.0 0.00 0.00 0.00 76 1065.0
20260508053721 15 157 0.0 0.0 0.00 0.00 0.00 76 1065.0
20260508053601 15 157 0.0 0.0 0.00 0.00 0.00 76 1064.9
20260508053447 15 157 0.0 0.0 0.00 0.00 0.00 77 1064.9
20260508053335 15 157 0.0 0.0 0.00 0.00 0.00 77 1064.9
20260508053229 15 157 0.0 0.0 0.00 0.00 0.00 78 1065.0
20260508053108 15 157 0.0 0.0 0.00 0.00 0.00 78 1065.0
20260508052947 15 157 0.0 0.0 0.00 0.00 0.00 79 1064.9
20260508052841 15 157 0.0 0.0 0.00 0.00 0.00 79 1064.9
20260508052736 15 157 0.0 0.0 0.00 0.00 0.00 79 1064.8
20260508052631 14 157 0.0 0.0 0.00 0.00 0.00 80 1064.8
20260508052526 14 157 0.0 0.0 0.00 0.00 0.00 81 1064.8
20260508052413 13 157 0.0 0.0 0.00 0.00 0.00 81 1064.8
20260508052251 13 157 0.0 0.0 0.00 0.00 0.00 82 1064.8
20260508052123 13 157 0.0 0.0 0.00 0.00 0.00 83 1064.7
20260508052017 12 157 0.0 0.0 0.00 0.00 0.00 83 1064.7
20260508051904 12 157 0.0 0.0 0.00 0.00 0.00 84 1064.7
20260508051750 12 157 0.0 0.0 0.00 0.00 0.00 84 1064.7
20260508051645 12 157 0.0 0.0 0.00 0.00 0.00 84 1064.7
20260508051530 11 157 0.0 0.0 0.00 0.00 0.00 85 1064.7
20260508051401 11 157 0.0 0.0 0.00 0.00 0.00 85 1064.7
20260508051250 11 157 0.0 0.0 0.00 0.00 0.00 86 1064.7
20260508051143 10 157 0.0 0.0 0.00 0.00 0.00 86 1064.7
20260508051023 10 157 0.0 0.0 0.00 0.00 0.00 87 1064.7
20260508050917 10 157 0.0 0.0 0.00 0.00 0.00 87 1064.7
20260508050803 10 157 0.0 0.0 0.00 0.00 0.00 87 1064.7
20260508050658 10 157 0.0 0.0 0.00 0.00 0.00 87 1064.6
20260508050538 10 157 0.0 0.0 0.00 0.00 0.00 87 1064.6
20260508050426 10 157 0.0 0.0 0.00 0.00 0.00 87 1064.6
20260508050319 10 157 0.0 0.0 0.00 0.00 0.00 87 1064.6
20260508050214 10 157 0.0 0.0 0.00 0.00 0.00 87 1064.6
20260508050109 10 157 0.0 0.0 0.00 0.00 0.00 87 1064.6
20260508050003 10 157 0.0 0.0 0.00 0.00 0.00 87 1064.6
20260508045850 10 157 0.0 0.0 0.00 0.00 0.00 87 1064.5
20260508045743 10 157 0.0 0.0 0.00 0.00 0.00 87 1064.6
20260508045621 10 157 0.0 0.0 0.00 0.00 0.00 87 1064.6
20260508045509 10 157 0.0 0.0 0.00 0.00 0.00 86 1064.6
20260508045356 10 157 0.0 0.0 0.00 0.00 0.00 86 1064.5
20260508045250 11 157 0.0 0.0 0.00 0.00 0.00 86 1064.5
20260508045136 11 157 0.0 0.0 0.00 0.00 0.00 86 1064.5
20260508045024 10 157 0.0 0.0 0.00 0.00 0.00 87 1064.6
20260508044911 10 157 0.0 0.0 0.00 0.00 0.00 87 1064.4
20260508044757 10 157 0.0 0.0 0.00 0.00 0.00 87 1064.6
20260508044628 10 157 0.0 0.0 0.00 0.00 0.00 88 1064.5
20260508044507 10 157 0.0 0.0 0.00 0.00 0.00 88 1064.6
20260508044356 10 157 0.0 0.0 0.00 0.00 0.00 88 1064.5
20260508044247 10 157 0.0 0.0 0.00 0.00 0.00 88 1064.5
20260508044133 10 157 0.0 0.0 0.00 0.00 0.00 88 1064.6
20260508044019 10 157 0.0 0.0 0.00 0.00 0.00 88 1064.5
20260508043858 10 157 0.0 0.0 0.00 0.00 0.00 88 1064.5
20260508043737 10 157 0.0 0.0 0.00 0.00 0.00 88 1064.5
20260508043631 10 157 0.0 0.0 0.00 0.00 0.00 88 1064.5
20260508043526 9 157 0.0 0.0 0.00 0.00 0.00 89 1064.4
20260508043412 9 157 0.0 0.0 0.00 0.00 0.00 89 1064.4
20260508043249 8 157 0.0 0.0 0.00 0.00 0.00 89 1064.5
20260508043135 8 157 0.0 0.0 0.00 0.00 0.00 89 1064.4
20260508043029 8 157 0.0 0.0 0.00 0.00 0.00 89 1064.5
20260508042915 8 157 0.0 0.0 0.00 0.00 0.00 89 1064.5
20260508042755 8 157 0.0 0.0 0.00 0.00 0.00 90 1064.4
20260508042640 8 157 0.0 0.0 0.00 0.00 0.00 90 1064.4
20260508042527 7 157 0.0 0.0 0.00 0.00 0.00 90 1064.4
20260508042406 7 157 0.0 0.0 0.00 0.00 0.00 90 1064.5
20260508042244 7 157 0.0 0.0 0.00 0.00 0.00 90 1064.5
20260508042126 7 157 0.0 0.0 0.00 0.00 0.00 90 1064.4
20260508042018 7 157 0.0 0.0 0.00 0.00 0.00 90 1064.4
20260508041905 7 157 0.0 0.0 0.00 0.00 0.00 90 1064.4
20260508041738 7 157 0.0 0.0 0.00 0.00 0.00 90 1064.4
20260508041632 7 157 0.0 0.0 0.00 0.00 0.00 90 1064.4
20260508041528 7 157 0.0 0.0 0.00 0.00 0.00 90 1064.4
20260508041422 7 157 0.0 0.0 0.00 0.00 0.00 90 1064.4
20260508041319 7 157 0.0 0.0 0.00 0.00 0.00 90 1064.4
20260508041211 7 157 0.0 0.0 0.00 0.00 0.00 90 1064.4
20260508041049 7 157 0.0 0.0 0.00 0.00 0.00 90 1064.3
20260508040937 7 157 0.0 0.0 0.00 0.00 0.00 90 1064.3
20260508040823 7 157 0.0 0.0 0.00 0.00 0.00 90 1064.3
20260508040711 7 157 0.0 0.0 0.00 0.00 0.00 90 1064.4
20260508040606 7 157 0.0 0.0 0.00 0.00 0.00 90 1064.3
20260508040501 7 157 0.0 0.0 0.00 0.00 0.00 90 1064.4
20260508040347 7 157 0.0 0.0 0.00 0.00 0.00 90 1064.3
20260508040226 7 157 0.0 0.0 0.00 0.00 0.00 90 1064.3
20260508040113 7 157 0.0 0.0 0.00 0.00 0.00 90 1064.3
20260508040009 7 157 0.0 0.0 0.00 0.00 0.00 90 1064.4
20260508035855 7 157 0.0 0.0 0.00 0.00 0.00 90 1064.4
20260508035734 7 157 0.0 0.0 0.00 0.00 0.00 90 1064.4
20260508035631 7 157 0.0 0.0 0.00 0.00 0.00 90 1064.3
20260508035523 7 157 0.0 0.0 0.00 0.00 0.00 90 1064.4
20260508035402 7 157 0.0 0.0 0.00 0.00 0.00 90 1064.4
20260508035241 7 157 0.0 0.0 0.00 0.00 0.00 90 1064.3
20260508035128 7 157 0.0 0.0 0.00 0.00 0.00 90 1064.3
20260508035024 7 157 0.0 0.0 0.00 0.00 0.00 90 1064.4
20260508034918 7 157 0.0 0.0 0.00 0.00 0.00 90 1064.3
20260508034756 7 157 0.0 0.0 0.00 0.00 0.00 90 1064.3
20260508034636 7 157 0.0 0.0 0.00 0.00 0.00 90 1064.3
20260508034531 7 157 0.0 0.0 0.00 0.00 0.00 90 1064.3
20260508034425 7 157 0.0 0.0 0.00 0.00 0.00 90 1064.3
20260508034304 7 157 0.0 0.0 0.00 0.00 0.00 90 1064.3
20260508034151 7 157 0.0 0.0 0.00 0.00 0.00 90 1064.3
20260508034038 7 157 0.0 0.0 0.00 0.00 0.00 90 1064.3
20260508033932 7 157 0.0 0.0 0.00 0.00 0.00 90 1064.3
20260508033819 7 157 0.0 0.0 0.00 0.00 0.00 90 1064.3
20260508033658 7 157 0.0 0.0 0.00 0.00 0.00 90 1064.3
20260508033537 7 157 0.0 0.0 0.00 0.00 0.00 90 1064.3
20260508033417 7 157 0.0 0.0 0.00 0.00 0.00 90 1064.3
20260508033311 7 157 0.0 0.0 0.00 0.00 0.00 90 1064.3
20260508033158 7 157 0.0 0.0 0.00 0.00 0.00 90 1064.4
20260508033028 7 157 0.0 0.0 0.00 0.00 0.00 90 1064.3
20260508032916 7 157 0.0 0.0 0.00 0.00 0.00 90 1064.3
20260508032754 7 157 0.0 0.0 0.00 0.00 0.00 90 1064.3
20260508032642 7 157 0.0 0.0 0.00 0.00 0.00 90 1064.3
20260508032538 7 157 0.0 0.0 0.00 0.00 0.00 90 1064.3
20260508032431 7 157 0.0 0.0 0.00 0.00 0.00 90 1064.3
20260508032319 7 157 0.0 0.0 0.00 0.00 0.00 90 1064.3
20260508032213 7 157 0.0 0.0 0.00 0.00 0.00 90 1064.2
20260508032100 7 157 0.0 0.0 0.00 0.00 0.00 90 1064.2
20260508031947 7 157 0.0 0.0 0.00 0.00 0.00 90 1064.2
20260508031833 7 157 0.0 0.0 0.00 0.00 0.00 90 1064.3
20260508031721 7 157 0.0 0.0 0.00 0.00 0.00 90 1064.3
20260508031615 7 157 0.0 0.0 0.00 0.00 0.00 90 1064.3
20260508031503 7 157 0.0 0.0 0.00 0.00 0.00 90 1064.3
20260508031357 7 157 0.0 0.0 0.00 0.00 0.00 90 1064.2
20260508031244 7 157 0.0 0.0 0.00 0.00 0.00 90 1064.2
20260508031131 7 157 0.0 0.0 0.00 0.00 0.00 90 1064.2
20260508031018 7 157 0.0 0.0 0.00 0.00 0.00 90 1064.2
20260508030914 7 157 0.0 0.0 0.00 0.00 0.00 90 1064.2
20260508030808 7 157 0.0 0.0 0.00 0.00 0.00 90 1064.2
20260508030657 7 157 0.0 0.0 0.00 0.00 0.00 90 1064.2
20260508030550 7 157 0.0 0.0 0.00 0.00 0.00 90 1064.2
20260508030428 7 157 0.0 0.0 0.00 0.00 0.00 90 1064.2
20260508030307 7 157 0.0 0.0 0.00 0.00 0.00 90 1064.1
20260508030147 7 157 0.0 0.0 0.00 0.00 0.00 90 1064.2
20260508030041 7 157 0.0 0.0 0.00 0.00 0.00 90 1064.2
20260508025928 7 157 0.0 0.0 0.00 0.00 0.00 90 1064.1
20260508025815 7 157 0.0 0.0 0.00 0.00 0.00 90 1064.2
20260508025653 7 157 0.0 0.0 0.00 0.00 0.00 90 1064.2
20260508025541 7 157 0.0 0.0 0.00 0.00 0.00 90 1064.2
20260508025429 7 157 0.0 0.0 0.00 0.00 0.00 90 1064.3
20260508025323 7 157 0.0 0.0 0.00 0.00 0.00 90 1064.1
20260508025210 7 157 0.0 0.0 0.00 0.00 0.00 90 1064.2
20260508025104 7 157 0.0 0.0 0.00 0.00 0.00 90 1064.2
20260508024953 7 157 0.0 0.0 0.00 0.00 0.00 90 1064.1
20260508024846 7 157 0.0 0.0 0.00 0.00 0.00 90 1064.2
20260508024733 7 157 0.0 0.0 0.00 0.00 0.00 90 1064.2
20260508024628 7 157 0.0 0.0 0.00 0.00 0.00 90 1064.1
20260508024459 7 157 0.0 0.0 0.00 0.00 0.00 90 1064.1
20260508024346 7 157 0.0 0.0 0.00 0.00 0.00 90 1064.2
20260508024228 7 157 0.0 0.0 0.00 0.00 0.00 90 1064.0
20260508024113 7 157 0.0 0.0 0.00 0.00 0.00 90 1064.1
20260508024006 7 157 0.0 0.0 0.00 0.00 0.00 90 1064.1
20260508023853 7 157 0.0 0.0 0.00 0.00 0.00 90 1064.1
20260508023749 7 157 0.0 0.0 0.00 0.00 0.00 90 1064.0
20260508023643 7 157 0.0 0.0 0.00 0.00 0.00 90 1064.1
20260508023537 7 157 0.0 0.0 0.00 0.00 0.00 90 1064.0
20260508023416 7 157 0.0 0.0 0.00 0.00 0.00 90 1064.0
20260508023304 7 157 0.0 0.0 0.00 0.00 0.00 90 1064.1
20260508023150 7 157 0.0 0.0 0.00 0.00 0.00 90 1064.0
20260508023029 8 157 0.0 0.0 0.00 0.00 0.00 90 1064.0
20260508022909 8 157 0.0 0.0 0.00 0.00 0.00 90 1064.1
20260508022803 8 157 0.0 0.0 0.00 0.00 0.00 90 1064.0
20260508022652 8 157 0.0 0.0 0.00 0.00 0.00 90 1064.0
20260508022545 8 157 0.0 0.0 0.00 0.00 0.00 90 1064.0
20260508022432 8 157 0.0 0.0 0.00 0.00 0.00 90 1063.9
20260508022319 8 157 0.0 0.0 0.00 0.00 0.00 90 1064.0
20260508022206 8 157 0.0 0.0 0.00 0.00 0.00 90 1064.0
20260508022052 8 157 0.0 0.0 0.00 0.00 0.00 90 1063.9
20260508021939 8 157 0.0 0.0 0.00 0.00 0.00 90 1063.9
20260508021825 8 157 0.0 0.0 0.00 0.00 0.00 90 1063.9
20260508021713 8 157 0.0 0.0 0.00 0.00 0.00 90 1063.9
20260508021608 8 157 0.0 0.0 0.00 0.00 0.00 90 1063.9
20260508021447 8 157 0.0 0.0 0.00 0.00 0.00 90 1063.9
20260508021342 8 157 0.0 0.0 0.00 0.00 0.00 90 1064.0
20260508021220 8 157 0.0 0.0 0.00 0.00 0.00 90 1063.9
20260508021108 8 157 0.0 0.0 0.00 0.00 0.00 90 1063.9
20260508021003 8 157 0.0 0.0 0.00 0.00 0.00 90 1063.9
20260508020841 8 157 0.0 0.0 0.00 0.00 0.00 90 1064.0
20260508020728 8 157 0.0 0.0 0.00 0.00 0.00 90 1064.0
20260508020623 8 157 0.0 0.0 0.00 0.00 0.00 90 1064.0
20260508020510 8 157 0.0 0.0 0.00 0.00 0.00 90 1064.0
20260508020357 8 157 0.0 0.0 0.00 0.00 0.00 90 1064.0
20260508020244 8 157 0.0 0.0 0.00 0.00 0.00 90 1064.0
20260508020131 8 180 0.0 0.0 0.00 0.00 0.00 90 1064.0
20260508020017 8 180 0.0 0.0 0.00 0.00 0.00 90 1063.9
20260508015857 8 180 0.0 0.0 0.00 0.00 0.00 90 1063.9
20260508015751 8 180 0.0 0.0 0.00 0.00 0.00 90 1063.9
20260508015646 8 157 0.0 0.0 0.00 0.00 0.00 90 1063.9
20260508015533 8 157 0.0 0.0 0.00 0.00 0.00 90 1063.9
20260508015428 8 157 0.0 0.0 0.00 0.00 0.00 90 1063.9
20260508015300 8 157 0.0 0.0 0.00 0.00 0.00 90 1063.9
20260508015154 8 157 0.0 0.0 0.00 0.00 0.00 90 1063.9
20260508015041 8 157 0.0 0.0 0.00 0.00 0.00 90 1063.9
20260508014928 8 157 0.0 0.0 0.00 0.00 0.00 90 1063.9
20260508014814 8 157 0.0 0.0 0.00 0.00 0.00 90 1063.9
20260508014653 8 157 0.0 0.0 0.00 0.00 0.00 90 1063.9
20260508014532 8 157 0.0 0.0 0.00 0.00 0.00 90 1063.9
20260508014418 8 157 0.0 0.0 0.00 0.00 0.00 90 1063.9
20260508014306 8 157 0.0 0.0 0.00 0.00 0.00 90 1064.0
20260508014200 8 157 0.0 0.0 0.00 0.00 0.00 90 1064.0
20260508014047 8 157 0.0 0.0 0.00 0.00 0.00 90 1063.9
20260508013936 8 157 0.0 0.0 0.00 0.00 0.00 90 1063.9
20260508013829 8 157 0.0 0.0 0.00 0.00 0.00 90 1064.0
20260508013718 8 157 0.0 0.0 0.00 0.00 0.00 90 1063.9
20260508013611 8 157 0.0 0.0 0.00 0.00 0.00 90 1064.0
20260508013450 8 157 0.0 0.0 0.00 0.00 0.00 90 1063.9
20260508013345 8 157 0.0 0.0 0.00 0.00 0.00 90 1063.9
20260508013225 8 135 0.0 0.0 0.00 0.00 0.00 90 1063.9
20260508013119 8 135 0.0 0.0 0.00 0.00 0.00 90 1064.0
20260508013006 8 112 0.0 0.0 0.00 0.00 0.00 90 1063.9
20260508012901 8 112 0.0 0.0 0.00 0.00 0.00 90 1063.9
20260508012755 8 112 0.0 0.0 0.00 0.00 0.00 90 1063.9
20260508012642 8 112 0.0 0.0 0.00 0.00 0.00 90 1063.9
20260508012521 8 112 0.0 0.0 0.00 0.00 0.00 90 1063.9
20260508012408 8 112 0.0 0.0 0.00 0.00 0.00 90 1063.9
20260508012307 8 112 0.0 0.0 0.00 0.00 0.00 90 1063.9
20260508012142 8 112 0.0 0.0 0.00 0.00 0.00 90 1063.9
20260508012037 8 112 0.0 0.0 0.00 0.00 0.00 90 1063.9
20260508011923 8 112 0.0 0.0 0.00 0.00 0.00 90 1063.8
20260508011811 8 112 0.0 0.0 0.00 0.00 0.00 90 1063.9
20260508011707 8 112 0.0 0.0 0.00 0.00 0.00 90 1063.9
20260508011601 8 90 0.0 0.0 0.00 0.00 0.00 90 1063.8
20260508011456 8 90 0.0 0.0 0.00 0.00 0.00 90 1063.9
20260508011343 8 90 0.0 0.0 0.00 0.00 0.00 90 1063.8
20260508011237 8 90 0.0 0.0 0.00 0.00 0.00 90 1063.8
20260508011125 8 90 0.0 0.0 0.00 0.00 0.00 90 1063.8
20260508011019 8 90 0.0 0.0 0.00 0.00 0.00 90 1063.8
20260508010909 8 90 0.0 0.0 0.00 0.00 0.00 90 1063.8
20260508010803 8 90 0.0 0.0 0.00 0.00 0.00 90 1063.8
20260508010659 8 90 0.0 0.0 0.00 0.00 0.00 90 1063.8
20260508010551 8 90 0.0 0.0 0.00 0.00 0.00 90 1063.8
20260508010422 8 90 0.0 0.0 0.00 0.00 0.00 90 1063.8
20260508010307 8 90 0.0 0.0 0.00 0.00 0.00 90 1063.8
20260508005946 8 90 0.0 0.0 0.00 0.00 0.00 90 1063.8
20260508005840 8 90 0.0 0.0 0.00 0.00 0.00 90 1063.9
20260508005720 8 90 0.0 0.0 0.00 0.00 0.00 90 1063.8
20260508005558 8 90 0.0 0.0 0.00 0.00 0.00 90 1063.8
20260508005454 8 90 0.0 0.0 0.00 0.00 0.00 90 1063.8
20260508005349 8 90 0.0 0.0 0.00 0.00 0.00 90 1063.8
20260508005243 8 90 0.0 0.0 0.00 0.00 0.00 90 1063.8
20260508005130 8 90 0.0 0.0 0.00 0.00 0.00 90 1063.9
20260508005025 8 90 0.0 0.0 0.00 0.00 0.00 90 1063.8
20260508004914 8 90 0.0 0.0 0.00 0.00 0.00 90 1063.8
20260508004806 8 90 0.0 0.0 0.00 0.00 0.00 90 1063.9
20260508004637 8 90 0.0 0.0 0.00 0.00 0.00 90 1063.9
20260508004524 8 90 0.0 0.0 0.00 0.00 0.00 90 1063.8
20260508004411 8 90 0.0 0.0 0.00 0.00 0.00 90 1063.9
20260508004301 8 90 0.0 0.0 0.00 0.00 0.00 90 1063.9
20260508004153 8 90 0.0 0.0 0.00 0.00 0.00 90 1063.8
20260508004048 8 90 0.0 0.0 0.00 0.00 0.00 90 1063.9
20260508003935 8 90 0.0 0.0 0.00 0.00 0.00 90 1063.8
20260508003813 8 90 0.0 0.0 0.00 0.00 0.00 90 1063.9
20260508003701 8 90 0.0 0.0 0.00 0.00 0.00 90 1063.8
20260508003555 8 90 0.0 0.0 0.00 0.00 0.00 90 1063.9
20260508003418 8 90 0.0 0.0 0.00 0.00 0.00 90 1063.8
20260508003251 8 90 0.0 0.0 0.00 0.00 0.00 90 1063.8
20260508003144 8 90 0.0 0.0 0.00 0.00 0.00 90 1063.9
20260508003030 8 90 0.0 0.0 0.00 0.00 0.00 90 1063.8
20260508002909 8 90 0.0 0.0 0.00 0.00 0.00 90 1063.9
20260508002742 8 90 0.0 0.0 0.00 0.00 0.00 90 1063.8
20260508002634 8 90 0.0 0.0 0.00 0.00 0.00 89 1063.8
20260508002520 8 67 0.0 0.0 0.00 0.00 0.00 89 1063.9
20260508002406 8 67 0.0 0.0 0.00 0.00 0.00 89 1063.9
20260508002300 7 67 0.0 0.0 0.00 0.00 0.00 89 1063.8
20260508002145 7 67 0.0 0.0 0.00 0.00 0.00 89 1063.8
20260508002023 7 45 0.0 0.0 0.00 0.00 0.00 89 1063.8
20260508001903 7 45 0.0 0.0 0.00 0.00 0.00 89 1063.8
20260508001757 7 45 0.0 0.0 0.00 0.00 0.00 89 1063.9
20260508001644 7 45 0.0 0.0 0.00 0.00 0.00 89 1063.8
20260508001530 7 45 0.0 0.0 0.00 0.00 0.00 89 1063.8
20260508001409 7 45 0.0 0.0 0.00 0.00 0.00 89 1063.8
20260508001304 7 45 0.0 0.0 0.00 0.00 0.00 89 1063.8
20260508001150 7 45 0.0 0.0 0.00 0.00 0.00 89 1063.8
20260508001030 7 45 0.0 0.0 0.00 0.00 0.00 89 1063.8
20260508000916 7 45 0.0 0.0 0.00 0.00 0.00 89 1063.7
20260508000755 7 45 0.0 0.0 0.00 0.00 0.00 89 1063.8
20260508000633 7 45 0.0 0.0 0.00 0.00 0.00 89 1063.8
20260508000528 7 45 0.0 0.0 0.00 0.00 0.00 89 1063.8
20260508000421 7 45 0.0 0.0 0.00 0.00 0.00 89 1063.9
20260508000308 7 45 0.0 0.0 0.00 0.00 0.00 88 1063.9
20260508000147 7 45 0.0 0.0 0.00 0.00 0.00 88 1063.8
20260508000033 7 45 0.0 0.0 0.00 0.00 0.00 88 1063.8
20260507235927 7 45 0.0 0.0 0.00 0.00 0.00 88 1063.8
20260507235821 7 45 0.0 0.0 0.00 0.00 0.00 88 1063.8
20260507235700 7 45 0.0 0.0 0.00 0.00 0.00 88 1063.9
20260507235544 7 45 0.0 0.0 0.00 0.00 0.00 88 1063.9
20260507235431 7 45 0.0 0.0 0.00 0.00 0.00 88 1063.8
20260507235316 7 45 0.0 0.0 0.00 0.00 0.00 88 1063.8
20260507235203 7 45 0.0 0.0 0.00 0.00 0.00 88 1063.8
20260507235041 7 45 0.0 0.0 0.00 0.00 0.00 88 1063.8
20260507234920 7 45 0.0 0.0 0.00 0.00 0.00 88 1063.8
20260507234758 7 45 0.0 0.0 0.00 0.00 0.00 88 1063.8
20260507234628 7 45 0.0 0.0 0.00 0.00 0.00 88 1063.8
20260507234507 7 45 0.0 0.0 0.00 0.00 0.00 88 1063.8
20260507234337 7 45 0.0 0.0 0.00 0.00 0.00 88 1063.8
20260507234208 7 45 0.0 0.0 0.00 0.00 0.00 88 1063.9
20260507234054 7 45 0.0 0.0 0.00 0.00 0.00 88 1063.8
20260507233950 6 45 0.0 0.0 0.00 0.00 0.00 88 1063.8
20260507233843 7 45 0.0 0.0 0.00 0.00 0.00 88 1063.8
20260507233738 7 45 0.0 0.0 0.00 0.00 0.00 88 1063.8
20260507233630 6 45 0.0 0.0 0.00 0.00 0.00 88 1063.8
20260507233501 7 45 0.0 0.0 0.00 0.00 0.00 88 1063.7
20260507233347 7 45 0.0 0.0 0.00 0.00 0.00 88 1063.9
20260507233218 7 45 0.0 0.0 0.00 0.00 0.00 88 1063.8
20260507233111 7 45 0.0 0.0 0.00 0.00 0.00 88 1063.9
20260507232941 7 45 0.0 0.0 0.00 0.00 0.00 88 1063.9
20260507232820 7 45 0.0 0.0 0.00 0.00 0.00 88 1063.8
20260507232646 7 45 0.0 0.0 0.00 0.00 0.00 88 1063.8
20260507232538 7 45 0.0 0.0 0.00 0.00 0.00 87 1063.8
20260507232433 7 45 0.0 0.0 0.00 0.00 0.00 87 1063.8
20260507232319 7 45 0.0 0.0 0.00 0.00 0.00 87 1063.8
20260507232159 7 45 0.0 0.0 0.00 0.00 0.00 87 1063.8
20260507232045 7 45 0.0 0.0 0.00 0.00 0.00 87 1063.8
20260507231918 7 45 0.0 0.0 0.00 0.00 0.00 87 1063.8
20260507231811 7 45 0.0 0.0 0.00 0.00 0.00 87 1063.7
20260507231634 7 45 0.0 0.0 0.00 0.00 0.00 87 1063.7
20260507231520 7 45 0.0 0.0 0.00 0.00 0.00 87 1063.7
20260507231407 7 45 0.0 0.0 0.00 0.00 0.00 87 1063.7
20260507231238 7 45 0.0 0.0 0.00 0.00 0.00 87 1063.7
20260507231116 7 45 0.0 0.0 0.00 0.00 0.00 87 1063.7
20260507230956 7 45 0.0 0.0 0.00 0.00 0.00 87 1063.8
20260507230842 7 45 0.0 0.0 0.00 0.00 0.00 87 1063.7
20260507230721 7 45 0.0 0.0 0.00 0.00 0.00 87 1063.7
20260507230608 7 45 0.0 0.0 0.00 0.00 0.00 87 1063.7
20260507230441 7 45 0.0 0.0 0.00 0.00 0.00 87 1063.7
20260507230335 7 45 0.0 0.0 0.00 0.00 0.00 87 1063.7
20260507230229 7 45 0.0 0.0 0.00 0.00 0.00 87 1063.6
20260507230115 7 45 0.0 0.0 0.00 0.00 0.00 87 1063.7
20260507225946 7 45 0.0 0.0 0.00 0.00 0.00 87 1063.7
20260507225827 7 45 0.0 0.0 0.00 0.00 0.00 87 1063.7
20260507225720 8 45 0.0 0.0 0.00 0.00 0.00 87 1063.6
20260507225558 8 45 0.0 0.0 0.00 0.00 0.00 87 1063.7
20260507225446 8 45 0.0 0.0 0.00 0.00 0.00 87 1063.7
20260507225340 8 45 0.0 0.0 0.00 0.00 0.00 87 1063.6
20260507225219 8 45 0.0 0.0 0.00 0.00 0.00 86 1063.7
20260507225106 8 45 0.0 0.0 0.00 0.00 0.00 86 1063.7
20260507224954 8 45 0.0 0.0 0.00 0.00 0.00 86 1063.6
20260507224847 8 45 0.0 0.0 0.00 0.00 0.00 86 1063.7
20260507224729 8 45 0.0 0.0 0.00 0.00 0.00 86 1063.7
20260507224622 8 45 0.0 0.0 0.00 0.00 0.00 86 1063.7
20260507224511 8 45 0.0 0.0 0.00 0.00 0.00 86 1063.8
20260507224403 8 45 0.0 0.0 0.00 0.00 0.00 86 1063.6
20260507224250 8 45 0.0 0.0 0.00 0.00 0.00 86 1063.7
20260507224121 8 45 0.0 0.0 0.00 0.00 0.00 86 1063.7
20260507224007 8 45 0.0 0.0 0.00 0.00 0.00 86 1063.7
20260507223840 8 45 0.0 0.0 0.00 0.00 0.00 86 1063.8
20260507223733 8 45 0.0 0.0 0.00 0.00 0.00 86 1063.7
20260507223620 8 45 0.0 0.0 0.00 0.00 0.00 86 1063.8
20260507223501 8 45 0.0 0.0 0.00 0.00 0.00 86 1063.8
20260507223338 8 45 0.0 0.0 0.00 0.00 0.00 86 1063.8
20260507223217 8 45 0.0 0.0 0.00 0.00 0.00 86 1063.8
20260507223106 8 45 0.0 0.0 0.00 0.00 0.00 86 1063.8
20260507222959 8 45 0.0 0.0 0.00 0.00 0.00 86 1063.7
20260507222846 8 45 0.0 0.0 0.00 0.00 0.00 86 1063.8
20260507222740 9 45 0.0 0.0 0.00 0.00 0.00 86 1063.8
20260507222611 9 45 0.0 0.0 0.00 0.00 0.00 86 1063.8
20260507222452 9 45 0.0 0.0 0.00 0.00 0.00 86 1063.8
20260507222344 9 45 0.0 0.0 0.00 0.00 0.00 86 1063.7
20260507222223 9 22 0.0 0.0 0.00 0.00 0.00 86 1063.7
20260507222110 9 22 0.0 0.0 0.00 0.00 0.00 86 1063.7
20260507221949 9 22 0.0 0.0 0.00 0.00 0.00 86 1063.7
20260507221843 9 45 0.0 0.0 0.00 0.00 0.00 86 1063.7
20260507221729 9 45 0.0 0.0 0.00 0.00 0.00 86 1063.7
20260507221615 9 45 0.0 0.0 0.00 0.00 0.00 86 1063.6
20260507221503 9 45 0.0 0.0 0.00 0.00 0.00 86 1063.7
20260507221342 9 45 0.0 0.0 0.00 0.00 0.00 86 1063.6
20260507221229 9 67 8.0 0.0 0.00 0.00 0.00 86 1063.8
20260507221107 9 45 0.0 0.0 0.00 0.00 0.00 86 1063.7
20260507220947 9 45 0.0 0.0 0.00 0.00 0.00 86 1063.6
20260507220833 9 45 0.0 0.0 0.00 0.00 0.00 86 1063.6
20260507220713 9 45 0.0 0.0 0.00 0.00 0.00 86 1063.7
20260507220600 9 45 0.0 0.0 0.00 0.00 0.00 86 1063.7
20260507220454 9 45 0.0 0.0 0.00 0.00 0.00 86 1063.7
20260507220350 9 22 4.8 0.0 0.00 0.00 0.00 86 1063.7
20260507220243 9 45 0.0 0.0 0.00 0.00 0.00 86 1063.7
20260507220115 9 45 0.0 0.0 0.00 0.00 0.00 86 1063.8
20260507220002 9 45 0.0 0.0 0.00 0.00 0.00 86 1063.8
20260507215849 9 45 0.0 0.0 0.00 0.00 0.00 86 1063.6
20260507215743 9 67 9.7 0.0 0.00 0.00 0.00 86 1063.6
20260507215622 9 45 4.8 0.0 0.00 0.00 0.00 86 1063.7
20260507215509 9 45 0.0 0.0 0.00 0.00 0.00 86 1063.6
20260507215404 9 45 0.0 0.0 0.00 0.00 0.00 86 1063.6
20260507215237 9 45 0.0 0.0 0.00 0.00 0.00 86 1063.7
20260507215129 9 45 0.0 0.0 0.00 0.00 0.00 86 1063.6
20260507215017 9 22 0.0 0.0 0.00 0.00 0.00 86 1063.6
20260507214911 9 45 0.0 0.0 0.00 0.00 0.00 86 1063.5
20260507214752 9 45 0.0 0.0 0.00 0.00 0.00 86 1063.6
20260507214637 9 45 0.0 0.0 0.00 0.00 0.00 86 1063.5
20260507214515 9 45 0.0 0.0 0.00 0.00 0.00 86 1063.6
20260507214354 9 45 0.0 0.0 0.00 0.00 0.00 86 1063.5
20260507214242 9 45 0.0 0.0 0.00 0.00 0.00 86 1063.5
20260507214136 9 45 9.7 0.0 0.00 0.00 0.00 86 1063.6
20260507214024 9 45 8.0 0.0 0.00 0.00 0.00 86 1063.6
20260507213913 9 45 0.0 0.0 0.00 0.00 0.00 85 1063.6
20260507213806 9 45 0.0 0.0 0.00 0.00 0.00 85 1063.6
20260507213652 9 45 0.0 0.0 0.00 0.00 0.00 85 1063.6
20260507213539 9 45 6.4 0.0 0.00 0.00 0.00 85 1063.7
20260507213425 9 22 0.0 0.0 0.00 0.00 0.00 85 1063.6
20260507213256 9 45 0.0 0.0 0.00 0.00 0.00 85 1063.6
20260507213135 9 45 0.0 0.0 0.00 0.00 0.00 85 1063.6
20260507213015 9 45 8.0 0.0 0.00 0.00 0.00 85 1063.6
20260507212909 9 45 0.0 0.0 0.00 0.00 0.00 85 1063.6
20260507212804 9 45 8.0 0.0 0.00 0.00 0.00 85 1063.6
20260507212650 9 45 0.0 0.0 0.00 0.00 0.00 85 1063.6
20260507212530 9 45 4.8 0.0 0.00 0.00 0.00 85 1063.6
20260507212417 9 90 6.4 0.0 0.00 0.00 0.00 85 1063.6
20260507212312 9 45 3.2 0.0 0.00 0.00 0.00 85 1063.6
20260507212150 10 22 0.0 0.0 0.00 0.00 0.00 84 1063.6
20260507212029 10 67 0.0 0.0 0.00 0.00 0.00 84 1063.6
20260507211923 10 45 6.4 0.0 0.00 0.00 0.00 84 1063.5
20260507211817 10 45 6.4 0.0 0.00 0.00 0.00 84 1063.6
20260507211712 10 45 0.0 0.0 0.00 0.00 0.00 84 1063.6
20260507211605 10 45 9.7 0.0 0.00 0.00 0.00 83 1063.6
20260507211450 10 45 0.0 0.0 0.00 0.00 0.00 83 1063.5
20260507211328 10 45 0.0 0.0 0.00 0.00 0.00 83 1063.5
20260507211213 10 67 0.0 0.0 0.00 0.00 0.00 83 1063.6
20260507211043 10 45 0.0 0.0 0.00 0.00 0.00 83 1063.6
20260507210921 10 45 6.4 0.0 0.00 0.00 0.00 83 1063.6
20260507210800 10 90 0.0 0.0 0.00 0.00 0.00 83 1063.6
20260507210646 10 90 6.4 0.0 0.00 0.00 0.00 83 1063.6
20260507210539 10 67 4.8 0.0 0.00 0.00 0.00 83 1063.6
20260507210426 10 90 0.0 0.0 0.00 0.00 0.00 83 1063.5
20260507210313 10 45 9.7 0.0 0.00 0.00 0.00 83 1063.6
20260507210207 10 67 0.0 0.0 0.00 0.00 0.00 83 1063.5
20260507210101 10 67 8.0 0.0 0.00 0.00 0.00 83 1063.5
20260507205947 10 67 6.4 0.0 0.00 0.00 0.00 82 1063.6
20260507205834 10 90 6.4 0.0 0.00 0.00 0.00 82 1063.5
20260507205728 10 45 0.0 0.0 0.00 0.00 0.00 82 1063.5
20260507205623 10 90 8.0 0.0 0.00 0.00 0.00 82 1063.6
20260507205502 10 90 11.3 0.0 0.00 0.00 0.00 82 1063.5
20260507205341 10 67 6.4 0.0 0.00 0.00 0.00 82 1063.5
20260507205229 10 90 1.6 0.0 0.00 0.00 0.00 82 1063.5
20260507205121 10 45 4.8 0.0 0.00 0.00 0.00 82 1063.5
20260507205003 10 67 0.0 0.0 0.00 0.00 0.00 82 1063.5
20260507204857 10 67 8.0 0.0 0.00 0.00 0.00 82 1063.5
20260507204750 10 90 8.0 0.0 0.00 0.00 0.00 82 1063.5
20260507204637 10 90 4.8 0.0 0.00 0.00 0.00 82 1063.5
20260507204516 10 67 8.0 0.0 0.00 0.00 0.00 82 1063.5
20260507204401 10 45 9.7 0.0 0.00 0.00 0.00 82 1063.5
20260507204247 10 67 1.6 0.0 0.00 0.00 0.00 82 1063.5
20260507204133 10 45 9.7 0.0 0.00 0.00 0.00 83 1063.5
20260507204011 10 67 8.0 0.0 0.00 0.00 0.00 83 1063.5
20260507203857 10 90 4.8 0.0 0.00 0.00 0.00 83 1063.5
20260507203751 10 90 4.8 0.0 0.00 0.00 0.00 83 1063.5
20260507203638 10 90 12.9 0.0 0.00 0.00 0.00 83 1063.5
20260507203530 10 67 8.0 0.0 0.00 0.00 0.00 83 1063.5
20260507203408 10 90 11.3 0.0 0.00 0.00 0.00 83 1063.5
20260507203254 10 90 4.8 0.0 0.00 0.00 0.00 83 1063.5
20260507203149 10 90 6.4 0.0 0.00 0.00 0.00 83 1063.5
20260507203041 10 90 14.5 0.0 0.00 0.00 0.00 83 1063.5
20260507202920 10 90 8.0 0.0 0.00 0.00 0.00 83 1063.5
20260507202805 10 112 8.0 0.0 0.00 0.00 0.00 83 1063.6
20260507202651 10 112 12.9 0.0 0.00 0.00 0.00 83 1063.5
20260507202545 10 67 6.4 0.0 0.00 0.00 0.00 83 1063.5
20260507202424 10 67 0.0 0.0 0.00 0.00 0.00 83 1063.5
20260507202308 10 90 6.4 0.0 0.00 0.00 0.00 83 1063.6
20260507202154 10 90 0.0 0.0 0.00 0.00 0.00 83 1063.5
20260507202049 10 67 0.0 0.0 0.00 0.00 0.00 83 1063.6
20260507201942 10 45 0.0 0.0 0.00 0.00 0.00 83 1063.6
20260507201837 10 90 9.7 0.0 0.00 0.00 0.00 83 1063.6
20260507201730 10 90 11.3 0.0 0.00 0.00 0.00 83 1063.6
20260507201624 10 90 6.4 0.0 0.00 0.00 0.00 83 1063.6
20260507201503 10 67 8.0 0.0 0.00 0.00 0.00 83 1063.6
20260507201347 10 90 4.8 0.0 0.00 0.00 0.00 83 1063.5
20260507201232 10 90 4.8 0.0 0.00 0.00 0.00 83 1063.5
20260507201120 10 67 9.7 0.0 0.00 0.00 0.00 83 1063.5
20260507201005 10 90 8.0 0.0 0.00 0.00 0.00 83 1063.4
20260507200858 10 45 9.7 0.0 0.00 0.00 0.00 83 1063.4
20260507200743 10 67 8.0 0.0 0.00 0.00 0.00 83 1063.4
20260507200630 10 67 3.2 0.0 0.00 0.00 0.00 83 1063.5
20260507200525 10 67 4.8 0.0 0.00 0.00 0.00 83 1063.4
20260507200417 10 90 8.0 0.0 0.00 0.00 0.00 84 1063.4
20260507200248 10 67 9.7 0.0 0.00 0.00 0.00 84 1063.4
20260507200134 10 90 14.5 0.0 0.00 0.00 0.00 84 1063.4
20260507195646 10 67 8.0 0.0 0.00 0.00 0.00 84 1063.3
20260507195540 10 45 11.3 0.0 0.00 0.00 0.00 84 1063.4
20260507195434 10 112 9.7 0.0 0.00 0.00 0.00 84 1063.4
20260507195325 10 90 4.8 0.0 0.00 0.00 0.00 84 1063.4
20260507195212 10 67 4.8 0.0 0.00 0.00 0.00 84 1063.4
20260507195106 10 67 6.4 0.0 0.00 0.00 0.00 84 1063.4
20260507195001 10 90 8.0 0.0 0.00 0.00 0.00 84 1063.3
20260507194852 10 67 4.8 0.0 0.00 0.00 0.00 84 1063.3
20260507194723 10 45 8.0 0.0 0.00 0.00 0.00 84 1063.3
20260507194608 10 22 3.2 0.0 0.00 0.00 0.00 84 1063.3
20260507194453 10 45 8.0 0.0 0.00 0.00 0.00 84 1063.3
20260507194340 10 67 12.9 0.0 0.00 0.00 0.00 84 1063.2
20260507194217 10 67 0.0 0.0 0.00 0.00 0.00 84 1063.3
20260507194104 10 45 4.8 0.0 0.00 0.00 0.00 84 1063.3
20260507193941 10 67 6.4 0.0 0.00 0.00 0.00 84 1063.2
20260507193827 10 90 0.0 0.0 0.00 0.00 0.00 84 1063.3
20260507193721 10 22 0.0 0.0 0.00 0.00 0.00 84 1063.2
20260507193615 10 90 9.7 0.0 0.00 0.00 0.00 84 1063.2
20260507193509 10 45 9.7 0.0 0.00 0.00 0.00 84 1063.1
20260507193403 10 90 3.2 0.0 0.00 0.00 0.00 84 1063.1
20260507193258 10 45 9.7 0.0 0.00 0.00 0.00 83 1063.1
20260507193151 10 45 8.0 0.0 0.00 0.00 0.00 83 1063.1
20260507193038 10 45 9.7 0.0 0.00 0.00 0.00 83 1063.1
20260507192933 10 90 0.0 0.0 0.00 0.00 0.00 83 1063.0
20260507192823 10 67 8.0 0.0 0.00 0.00 0.00 83 1062.9
20260507192705 10 45 8.0 0.0 0.00 0.00 0.00 83 1063.0
20260507192556 10 22 9.7 0.0 0.00 0.00 0.00 83 1062.9
20260507192442 10 45 8.0 0.0 0.00 0.00 0.00 83 1062.9
20260507192336 10 67 6.4 0.0 0.00 0.00 0.00 82 1062.9
20260507192221 10 45 0.0 0.0 0.00 0.00 0.00 82 1062.9
20260507192058 10 90 8.0 0.0 0.00 0.00 0.00 83 1062.9
20260507191945 10 45 9.7 0.0 0.00 0.00 0.00 82 1062.9
20260507191840 10 112 0.0 0.0 0.00 0.00 0.00 82 1062.9
20260507191733 10 45 3.2 0.0 0.00 0.00 0.00 82 1063.0
20260507191628 11 90 0.0 0.0 0.00 0.00 0.00 82 1063.0
20260507191523 11 90 0.0 0.0 0.00 0.00 0.00 82 1062.9
20260507191417 11 45 4.8 0.0 0.00 0.00 0.00 82 1063.0
20260507191312 11 22 8.0 0.0 0.00 0.00 0.00 82 1062.9
20260507191151 11 67 0.0 0.0 0.00 0.00 0.00 81 1062.9
20260507191029 11 67 6.4 0.0 0.00 0.00 0.00 81 1063.0
20260507190916 11 67 3.2 0.0 0.00 0.00 0.00 81 1063.0
20260507190805 11 45 0.0 0.0 0.00 0.00 0.00 81 1063.0
20260507190658 11 45 0.0 0.0 0.00 0.00 0.00 81 1063.0
20260507190545 11 67 0.0 0.0 0.00 0.00 0.00 81 1062.9
20260507190432 11 67 0.0 0.0 0.00 0.00 0.00 81 1062.9
20260507190327 11 67 0.0 0.0 0.00 0.00 0.00 81 1062.9
20260507190208 11 45 4.8 0.0 0.00 0.00 0.00 80 1062.9
20260507185958 11 67 4.8 0.0 0.00 0.00 0.00 80 1062.8
20260507185843 11 45 0.0 0.0 0.00 0.00 0.00 80 1062.7
20260507185729 11 67 1.6 0.0 0.00 0.00 0.00 80 1062.8
20260507185609 11 45 9.7 0.0 0.00 0.00 0.00 80 1062.9
20260507185505 11 90 8.0 0.0 0.00 0.00 0.00 80 1062.8
20260507185350 11 45 11.3 0.0 0.00 0.00 0.00 80 1062.9
20260507185237 11 67 6.4 0.0 0.00 0.00 0.00 80 1062.9
20260507185131 11 45 0.0 0.0 0.00 0.00 0.00 80 1062.9
20260507185012 11 67 0.0 0.0 0.00 0.00 0.00 80 1062.9
20260507184858 11 67 0.0 0.0 0.00 0.00 0.00 80 1062.8
20260507184745 11 67 9.7 0.0 0.00 0.00 0.00 80 1062.9
20260507184631 11 90 0.0 0.0 0.00 0.00 0.00 80 1062.8
20260507184510 11 67 0.0 0.0 0.00 0.00 0.00 80 1062.8
20260507184356 11 45 0.0 0.0 0.00 0.00 0.00 80 1062.8
20260507184238 11 67 0.0 0.0 0.00 0.00 0.00 80 1062.8
20260507184131 11 90 9.7 0.0 0.00 0.00 0.00 80 1062.8
20260507184009 11 67 0.0 0.0 0.00 0.00 0.00 80 1062.8
20260507183855 11 90 11.3 0.0 0.00 0.00 0.00 80 1062.9
20260507183745 11 45 8.0 0.0 0.00 0.00 0.00 80 1062.8
20260507183640 11 45 11.3 0.0 0.00 0.00 0.00 80 1062.9
20260507183534 11 90 0.0 0.0 0.00 0.00 0.00 80 1062.8
20260507183423 11 45 0.0 0.0 0.00 0.00 0.00 80 1062.8
20260507183315 11 90 4.8 0.0 0.00 0.00 0.00 80 1062.8
20260507183154 11 112 8.0 0.0 0.00 0.00 0.00 80 1062.8
20260507183043 11 45 8.0 0.0 0.00 0.00 0.00 79 1062.8
20260507182938 11 45 9.7 0.0 0.00 0.00 0.00 79 1062.7
20260507182823 11 112 4.8 0.0 0.00 0.00 0.00 79 1062.7
20260507182712 11 90 6.4 0.0 0.00 0.00 0.00 79 1062.8
20260507182603 11 45 6.4 0.0 0.00 0.00 0.00 79 1062.8
20260507182446 11 22 9.7 0.0 0.00 0.00 0.00 79 1062.7
20260507182339 11 67 11.3 0.0 0.00 0.00 0.00 79 1062.7
20260507182227 11 45 12.9 0.0 0.00 0.00 0.00 78 1062.7
20260507182120 11 67 11.3 0.0 0.00 0.00 0.00 78 1062.7
20260507182007 11 67 6.4 0.0 0.00 0.00 0.00 78 1062.6
20260507181846 11 22 0.0 0.0 0.00 0.00 0.00 78 1062.6
20260507181734 11 22 8.0 0.0 0.00 0.00 0.00 78 1062.7
20260507181630 11 67 11.3 0.0 0.00 0.00 0.00 79 1062.7
20260507181522 11 90 0.0 0.0 0.00 0.00 0.00 78 1062.7
20260507181410 11 22 4.8 0.0 0.00 0.00 0.00 78 1062.8
20260507181304 11 45 6.4 0.0 0.00 0.00 0.00 78 1062.7
20260507181137 11 45 9.7 0.0 0.00 0.00 0.00 78 1062.7
20260507181031 11 90 0.0 0.0 0.00 0.00 0.00 78 1062.7
20260507180918 11 22 8.0 0.0 0.00 0.00 0.00 78 1062.8
20260507180812 11 22 9.7 0.0 0.00 0.00 0.00 78 1062.7
20260507180658 11 67 6.4 0.0 0.00 0.00 0.00 78 1062.8
20260507180537 11 45 11.3 0.0 0.00 0.00 0.00 78 1062.7
20260507180416 11 45 12.9 0.0 0.00 0.00 0.00 78 1062.7
20260507180258 11 112 8.0 0.0 0.00 0.00 0.00 78 1062.7
20260507180149 11 67 16.1 0.0 0.00 0.00 0.00 78 1062.8
20260507180036 11 45 8.0 0.0 0.00 0.00 0.00 78 1062.7
20260507175931 11 112 4.8 0.0 0.00 0.00 0.00 78 1062.8
20260507175826 11 45 4.8 0.0 0.00 0.00 0.00 78 1062.9
20260507175714 11 45 16.1 0.0 0.00 0.00 0.00 78 1062.8
20260507175559 11 112 9.7 0.0 0.00 0.00 0.00 78 1062.7
20260507175438 11 0 0.0 0.0 0.00 0.00 0.00 78 1062.8
20260507175325 11 45 4.8 0.0 0.00 0.00 0.00 78 1062.8
20260507175214 11 22 6.4 0.0 0.00 0.00 0.00 77 1062.8
20260507175106 12 45 11.3 0.0 0.00 0.00 0.00 77 1062.7
20260507174945 12 45 9.7 0.0 0.00 0.00 0.00 77 1062.6
20260507174838 12 45 0.0 0.0 0.00 0.00 0.00 76 1062.7
20260507174731 12 22 9.7 0.0 0.00 0.00 0.00 76 1062.7
20260507174617 12 22 6.4 0.0 0.00 0.00 0.00 76 1062.7
20260507174456 12 45 0.0 0.0 0.00 0.00 0.00 76 1062.6
20260507174344 12 45 9.7 0.0 0.00 0.00 0.00 76 1062.8
20260507174228 12 67 14.5 0.0 0.00 0.00 0.00 76 1062.7
20260507174108 12 67 11.3 0.0 0.00 0.00 0.00 76 1062.6
20260507173955 12 45 9.7 0.0 0.00 0.00 0.00 76 1062.7
20260507173841 12 22 8.0 0.0 0.00 0.00 0.00 76 1062.7
20260507173730 12 45 0.0 0.0 0.00 0.00 0.00 77 1062.6
20260507173617 12 45 0.0 0.0 0.00 0.00 0.00 77 1062.6
20260507173511 12 45 9.7 0.0 0.00 0.00 0.00 76 1062.5
20260507173358 12 67 0.0 0.0 0.00 0.00 0.00 76 1062.6
20260507173252 12 22 8.0 0.0 0.00 0.00 0.00 76 1062.5
20260507173138 12 22 8.0 0.0 0.00 0.00 0.00 76 1062.5
20260507173017 12 45 6.4 0.0 0.00 0.00 0.00 76 1062.5
20260507172856 12 67 6.4 0.0 0.00 0.00 0.00 76 1062.5
20260507172743 12 67 11.3 0.0 0.00 0.00 0.00 76 1062.5
20260507172622 12 0 11.3 0.0 0.00 0.00 0.00 75 1062.5
20260507172453 12 67 8.0 0.0 0.00 0.00 0.00 75 1062.5
20260507172340 12 45 9.7 0.0 0.00 0.00 0.00 75 1062.5
20260507172235 12 67 11.3 0.0 0.00 0.00 0.00 75 1062.5
20260507172123 12 22 8.0 0.0 0.00 0.00 0.00 75 1062.5
20260507172017 12 22 9.7 0.0 0.00 0.00 0.00 75 1062.5
20260507171855 12 45 6.4 0.0 0.00 0.00 0.00 75 1062.5
20260507171734 12 22 8.0 0.0 0.00 0.00 0.00 74 1062.5
20260507171621 12 22 0.0 0.0 0.00 0.00 0.00 74 1062.5
20260507171459 12 22 3.2 0.0 0.00 0.00 0.00 74 1062.5
20260507171346 12 45 0.0 0.0 0.00 0.00 0.00 74 1062.3
20260507171235 12 22 4.8 0.0 0.00 0.00 0.00 73 1062.3
20260507171128 12 67 12.9 0.0 0.00 0.00 0.00 73 1062.3
20260507171000 12 45 9.7 0.0 0.00 0.00 0.00 73 1062.4
20260507170846 12 45 12.9 0.0 0.00 0.00 0.00 72 1062.4
20260507170724 12 45 0.0 0.0 0.00 0.00 0.00 72 1062.4
20260507170603 12 45 11.3 0.0 0.00 0.00 0.00 72 1062.3
20260507170444 12 45 9.7 0.0 0.00 0.00 0.00 72 1062.3
20260507170329 12 45 12.9 0.0 0.00 0.00 0.00 72 1062.3
20260507170208 13 0 6.4 0.0 0.00 0.00 0.00 72 1062.3
20260507165948 13 337 6.4 0.0 0.00 0.00 0.00 72 1062.3
20260507165828 13 0 9.7 0.0 0.00 0.00 0.00 72 1062.2
20260507165715 13 0 6.4 0.0 0.00 0.00 0.00 72 1062.3
20260507165609 13 22 6.4 0.0 0.00 0.00 0.00 71 1062.3
20260507165503 13 22 8.0 0.0 0.00 0.00 0.00 71 1062.1
20260507165350 13 22 11.3 0.0 0.00 0.00 0.00 71 1062.2
20260507165245 13 22 11.3 0.0 0.00 0.00 0.00 71 1062.2
20260507165139 13 0 9.7 0.0 0.00 0.00 0.00 71 1062.1
20260507165034 13 22 6.4 0.0 0.00 0.00 0.00 71 1062.1
20260507164928 13 22 14.5 0.0 0.00 0.00 0.00 71 1062.2
20260507164823 13 0 6.4 0.0 0.00 0.00 0.00 71 1062.2
20260507164717 13 22 11.3 0.0 0.00 0.00 0.00 71 1062.3
20260507164610 13 0 17.7 0.0 0.00 0.00 0.00 70 1062.1
20260507164450 13 22 14.5 0.0 0.00 0.00 0.00 70 1062.2
20260507164345 13 0 8.0 0.0 0.00 0.00 0.00 70 1062.3
20260507164241 13 45 11.3 0.0 0.00 0.00 0.00 70 1062.3
20260507164135 13 22 6.4 0.0 0.00 0.00 0.00 70 1062.2
20260507164028 13 22 9.7 0.0 0.00 0.00 0.00 70 1062.1
20260507163907 13 45 16.1 0.0 0.00 0.00 0.00 70 1062.3
20260507163738 13 22 4.8 0.0 0.00 0.00 0.00 70 1062.3
20260507163625 13 22 4.8 0.0 0.00 0.00 0.00 70 1062.3
20260507163512 13 22 14.5 0.0 0.00 0.00 0.00 70 1062.2
20260507163401 13 0 8.0 0.0 0.00 0.00 0.00 70 1062.2
20260507163246 13 0 9.7 0.0 0.00 0.00 0.00 69 1062.2
20260507163126 13 0 4.8 0.0 0.00 0.00 0.00 69 1062.2
20260507163011 13 0 4.8 0.0 0.00 0.00 0.00 68 1062.3
20260507162851 13 45 6.4 0.0 0.00 0.00 0.00 68 1062.2
20260507162746 13 45 6.4 0.0 0.00 0.00 0.00 69 1062.3
20260507162640 13 0 4.8 0.0 0.00 0.00 0.00 68 1062.3
20260507162519 13 22 0.0 0.0 0.00 0.00 0.00 67 1062.2
20260507162406 13 22 8.0 0.0 0.00 0.00 0.00 67 1062.2
20260507162253 13 45 14.5 0.0 0.00 0.00 0.00 67 1062.2
20260507162149 13 22 11.3 0.0 0.00 0.00 0.00 67 1062.2
20260507162044 14 45 9.7 0.0 0.00 0.00 0.00 67 1062.3
20260507161929 14 0 6.4 0.0 0.00 0.00 0.00 67 1062.2
20260507161810 14 0 0.0 0.0 0.00 0.00 0.00 67 1062.2
20260507161704 14 45 6.4 0.0 0.00 0.00 0.00 67 1062.2
20260507161601 14 0 0.0 0.0 0.00 0.00 0.00 66 1062.2
20260507161453 14 45 12.9 0.0 0.00 0.00 0.00 66 1062.2
20260507161340 14 45 9.7 0.0 0.00 0.00 0.00 66 1062.2
20260507161235 14 45 6.4 0.0 0.00 0.00 0.00 66 1062.2
20260507161124 14 45 8.0 0.0 0.00 0.00 0.00 66 1062.2
20260507161020 14 0 8.0 0.0 0.00 0.00 0.00 66 1062.2
20260507160858 15 0 9.7 0.0 0.00 0.00 0.00 66 1062.2
20260507160750 15 337 8.0 0.0 0.00 0.00 0.00 65 1062.3
20260507160630 15 0 11.3 0.0 0.00 0.00 0.00 64 1062.2
20260507160516 15 22 8.0 0.0 0.00 0.00 0.00 63 1062.2
20260507160355 15 45 19.3 0.0 0.00 0.00 0.00 63 1062.3
20260507160250 15 0 20.9 0.0 0.00 0.00 0.00 64 1062.2
20260507160129 15 22 9.7 0.0 0.00 0.00 0.00 64 1062.2
20260507160015 15 0 0.0 0.0 0.00 0.00 0.00 64 1062.2
20260507155902 15 22 0.0 0.0 0.00 0.00 0.00 64 1062.2
20260507155749 15 0 8.0 0.0 0.00 0.00 0.00 64 1062.2
20260507155636 15 45 9.7 0.0 0.00 0.00 0.00 64 1062.3
20260507155523 15 22 4.8 0.0 0.00 0.00 0.00 64 1062.3
20260507155401 15 22 9.7 0.0 0.00 0.00 0.00 63 1062.2
20260507155241 15 45 4.8 0.0 0.00 0.00 0.00 62 1062.3
20260507155138 15 22 6.4 0.0 0.00 0.00 0.00 64 1062.1
20260507155030 15 45 9.7 0.0 0.00 0.00 0.00 64 1062.3
20260507154909 15 45 6.4 0.0 0.00 0.00 0.00 63 1062.3
20260507154748 15 45 12.9 0.0 0.00 0.00 0.00 64 1062.2
20260507154634 15 0 8.0 0.0 0.00 0.00 0.00 64 1062.3
20260507154514 15 22 8.0 0.0 0.00 0.00 0.00 65 1062.2
20260507154408 15 22 4.8 0.0 0.00 0.00 0.00 64 1062.2
20260507154247 15 45 12.9 0.0 0.00 0.00 0.00 64 1062.2
20260507154119 15 315 4.8 0.0 0.00 0.00 0.00 64 1062.2
20260507154013 15 22 11.3 0.0 0.00 0.00 0.00 63 1062.2
20260507153908 15 22 8.0 0.0 0.00 0.00 0.00 63 1062.1
20260507153755 15 22 9.7 0.0 0.00 0.00 0.00 63 1062.1
20260507153650 15 45 9.7 0.0 0.00 0.00 0.00 63 1062.1
20260507153537 15 22 11.3 0.0 0.00 0.00 0.00 63 1062.3
20260507153420 15 22 12.9 0.0 0.00 0.00 0.00 63 1062.2
20260507153303 15 0 9.7 0.0 0.00 0.00 0.00 63 1062.2
20260507153157 15 45 11.3 0.0 0.00 0.00 0.00 63 1062.3
20260507153036 15 22 0.0 0.0 0.00 0.00 0.00 63 1062.2
20260507152923 15 22 17.7 0.0 0.00 0.00 0.00 63 1062.2
20260507152803 15 337 24.1 0.0 0.00 0.00 0.00 64 1062.3
20260507152640 15 22 6.4 0.0 0.00 0.00 0.00 64 1062.3
20260507152527 15 22 0.0 0.0 0.00 0.00 0.00 63 1062.2
20260507152423 15 67 14.5 0.0 0.00 0.00 0.00 63 1062.3
20260507152317 15 45 19.3 0.0 0.00 0.00 0.00 63 1062.2
20260507152156 15 22 4.8 0.0 0.00 0.00 0.00 63 1062.2
20260507152052 15 45 0.0 0.0 0.00 0.00 0.00 63 1062.2
20260507151946 15 22 9.7 0.0 0.00 0.00 0.00 63 1062.2
20260507151825 15 0 9.7 0.0 0.00 0.00 0.00 63 1062.2
20260507151720 15 22 4.8 0.0 0.00 0.00 0.00 63 1062.2
20260507151606 15 22 9.7 0.0 0.00 0.00 0.00 63 1062.1
20260507151453 15 22 11.3 0.0 0.00 0.00 0.00 63 1062.2
20260507151333 15 22 1.6 0.0 0.00 0.00 0.00 63 1062.2
20260507151227 15 22 9.7 0.0 0.00 0.00 0.00 63 1062.2
20260507151123 15 45 14.5 0.0 0.00 0.00 0.00 63 1062.3
20260507151018 16 22 11.3 0.0 0.00 0.00 0.00 62 1062.2
20260507150906 16 22 9.7 0.0 0.00 0.00 0.00 63 1062.2
20260507150758 16 22 8.0 0.0 0.00 0.00 0.00 63 1062.2
20260507150638 16 45 0.0 0.0 0.00 0.00 0.00 62 1062.2
20260507150525 16 67 16.1 0.0 0.00 0.00 0.00 63 1062.2
20260507150420 16 22 11.3 0.0 0.00 0.00 0.00 63 1062.0
20260507150309 15 0 11.3 0.0 0.00 0.00 0.00 63 1062.1
20260507150202 15 0 11.3 0.0 0.00 0.00 0.00 63 1062.1
20260507150040 15 45 9.7 0.0 0.00 0.00 0.00 61 1062.1
20260507145927 15 22 14.5 0.0 0.00 0.00 0.00 62 1062.2
20260507145758 15 0 11.3 0.0 0.00 0.00 0.00 63 1062.0
20260507145644 15 22 11.3 0.0 0.00 0.00 0.00 63 1062.1
20260507145534 15 22 9.7 0.0 0.00 0.00 0.00 63 1062.1
20260507145420 15 90 14.5 0.0 0.00 0.00 0.00 62 1062.1
20260507145314 16 45 19.3 0.0 0.00 0.00 0.00 61 1062.1
20260507145209 16 22 4.8 0.0 0.00 0.00 0.00 62 1062.1
20260507145055 16 22 12.9 0.0 0.00 0.00 0.00 62 1062.1
20260507144942 16 22 12.9 0.0 0.00 0.00 0.00 62 1062.0
20260507144837 16 0 8.0 0.0 0.00 0.00 0.00 63 1062.1
20260507144724 15 22 9.7 0.0 0.00 0.00 0.00 63 1062.0
20260507144603 16 0 8.0 0.0 0.00 0.00 0.00 62 1062.0
20260507144452 15 90 14.5 0.0 0.00 0.00 0.00 64 1062.1
20260507144345 15 22 14.5 0.0 0.00 0.00 0.00 64 1062.0
20260507144240 15 45 11.3 0.0 0.00 0.00 0.00 64 1062.0
20260507144119 15 67 9.7 0.0 0.00 0.00 0.00 64 1062.0
20260507144008 15 337 9.7 0.0 0.00 0.00 0.00 63 1062.0
20260507143902 15 0 12.9 0.0 0.00 0.00 0.00 63 1062.0
20260507143755 15 22 9.7 0.0 0.00 0.00 0.00 64 1062.1
20260507143643 15 0 9.7 0.0 0.00 0.00 0.00 63 1062.1
20260507143537 15 0 9.7 0.0 0.00 0.00 0.00 62 1062.1
20260507143432 15 0 11.3 0.0 0.00 0.00 0.00 62 1062.1
20260507143319 16 22 9.7 0.0 0.00 0.00 0.00 62 1062.1
20260507143158 15 0 14.5 0.0 0.00 0.00 0.00 62 1062.1
20260507143045 15 22 6.4 0.0 0.00 0.00 0.00 63 1062.0
20260507142941 15 22 9.7 0.0 0.00 0.00 0.00 63 1062.0
20260507142835 15 22 9.7 0.0 0.00 0.00 0.00 63 1062.2
20260507142729 15 0 9.7 0.0 0.00 0.00 0.00 63 1062.1
20260507142616 15 0 14.5 0.0 0.00 0.00 0.00 63 1062.1
20260507142455 15 45 9.7 0.0 0.00 0.00 0.00 63 1062.2
20260507142341 15 22 0.0 0.0 0.00 0.00 0.00 63 1062.2
20260507142221 15 22 11.3 0.0 0.00 0.00 0.00 63 1062.2
20260507142108 15 22 24.1 0.0 0.00 0.00 0.00 64 1062.1
20260507141955 15 45 14.5 0.0 0.00 0.00 0.00 63 1062.1
20260507141850 15 337 11.3 0.0 0.00 0.00 0.00 63 1062.1
20260507141739 15 22 9.7 0.0 0.00 0.00 0.00 64 1062.1
20260507141631 15 22 11.3 0.0 0.00 0.00 0.00 65 1062.1
20260507141512 15 45 9.7 0.0 0.00 0.00 0.00 64 1062.2
20260507141406 15 0 11.3 0.0 0.00 0.00 0.00 65 1062.1
20260507141302 15 0 8.0 0.0 0.00 0.00 0.00 65 1062.2
20260507141155 15 22 19.3 0.0 0.00 0.00 0.00 65 1062.1
20260507141049 15 22 11.3 0.0 0.00 0.00 0.00 65 1062.1
20260507140935 15 22 12.9 0.0 0.00 0.00 0.00 65 1062.1
20260507140830 15 45 6.4 0.0 0.00 0.00 0.00 66 1062.1
20260507140718 15 45 17.7 0.0 0.00 0.00 0.00 67 1062.1
20260507140603 15 22 11.3 0.0 0.00 0.00 0.00 66 1062.1
20260507140450 15 0 9.7 0.0 0.00 0.00 0.00 66 1062.2
20260507140337 14 0 9.7 0.0 0.00 0.00 0.00 66 1062.2
20260507140233 15 67 12.9 0.0 0.00 0.00 0.00 66 1062.2
20260507140127 14 45 19.3 0.0 0.00 0.00 0.00 68 1062.2
20260507140014 14 45 19.3 0.0 0.00 0.00 0.00 68 1062.2
20260507135901 14 45 9.7 0.0 0.00 0.00 0.00 68 1062.2
20260507135750 14 22 0.0 0.0 0.00 0.00 0.00 69 1062.2
20260507135645 14 22 0.0 0.0 0.00 0.00 0.00 68 1062.1
20260507135538 13 45 12.9 0.0 0.00 0.00 0.00 69 1062.2
20260507135425 13 22 8.0 0.0 0.00 0.00 0.00 69 1062.2
20260507135320 13 0 11.3 0.0 0.00 0.00 0.00 68 1062.1
20260507135215 13 337 4.8 0.0 0.00 0.00 0.00 68 1062.2
20260507135102 13 0 16.1 0.0 0.00 0.00 0.00 67 1062.2
20260507134949 13 0 8.0 0.0 0.00 0.00 0.00 67 1062.2
20260507134836 13 0 8.0 0.0 0.00 0.00 0.00 67 1062.2
20260507134733 13 0 9.7 0.0 0.00 0.00 0.00 67 1062.2
20260507134625 13 45 8.0 0.0 0.00 0.00 0.00 67 1062.1
20260507134512 13 0 29.0 0.0 0.00 0.00 0.00 67 1062.1
20260507134407 13 67 11.3 0.0 0.00 0.00 0.00 67 1062.0
20260507134256 13 45 17.7 0.0 0.00 0.00 0.00 67 1062.1
20260507134149 13 0 16.1 0.0 0.00 0.00 0.00 67 1062.1
20260507134028 13 45 11.3 0.0 0.00 0.00 0.00 66 1062.1
20260507133915 13 0 0.0 0.0 0.00 0.00 0.00 67 1062.1
20260507133801 13 337 11.3 0.0 0.00 0.00 0.00 67 1062.1
20260507133649 13 45 8.0 0.0 0.00 0.00 0.00 67 1062.1
20260507133536 13 22 14.5 0.0 0.00 0.00 0.00 67 1062.1
20260507133423 13 45 9.7 0.0 0.00 0.00 0.00 66 1062.1
20260507133317 13 22 9.7 0.0 0.00 0.00 0.00 66 1062.1
20260507133156 13 45 16.1 0.0 0.00 0.00 0.00 67 1062.1
20260507133043 13 22 9.7 0.0 0.00 0.00 0.00 66 1062.1
20260507132929 13 45 6.4 0.0 0.00 0.00 0.00 67 1062.0
20260507132808 13 45 17.7 0.0 0.00 0.00 0.00 67 1062.0
20260507132655 13 0 0.0 0.0 0.00 0.00 0.00 66 1062.0
20260507132542 13 0 0.0 0.0 0.00 0.00 0.00 67 1061.9
20260507132429 13 22 0.0 0.0 0.00 0.00 0.00 66 1062.0
20260507132309 13 22 14.5 0.0 0.00 0.00 0.00 67 1062.0
20260507132205 13 45 11.3 0.0 0.00 0.00 0.00 66 1062.0
20260507132058 13 0 9.7 0.0 0.00 0.00 0.00 66 1062.0
20260507131945 13 22 22.5 0.0 0.00 0.00 0.00 67 1062.0
20260507131840 13 112 9.7 0.0 0.00 0.00 0.00 67 1062.0
20260507131727 13 0 9.7 0.0 0.00 0.00 0.00 66 1062.0
20260507131615 13 45 12.9 0.0 0.00 0.00 0.00 66 1062.0
20260507131509 13 22 12.9 0.0 0.00 0.00 0.00 66 1061.9
20260507131355 13 22 6.4 0.0 0.00 0.00 0.00 66 1062.0
20260507131242 13 0 11.3 0.0 0.00 0.00 0.00 66 1062.0
20260507131137 14 0 9.7 0.0 0.00 0.00 0.00 66 1062.0
20260507131008 14 45 14.5 0.0 0.00 0.00 0.00 65 1062.0
20260507130855 14 337 9.7 0.0 0.00 0.00 0.00 65 1062.0
20260507130750 14 22 17.7 0.0 0.00 0.00 0.00 65 1062.0
20260507130636 14 22 11.3 0.0 0.00 0.00 0.00 66 1062.1
20260507130523 14 315 4.8 0.0 0.00 0.00 0.00 66 1062.0
20260507130410 14 0 9.7 0.0 0.00 0.00 0.00 66 1062.0
20260507130248 14 22 0.0 0.0 0.00 0.00 0.00 66 1062.0
20260507130129 14 45 14.5 0.0 0.00 0.00 0.00 66 1061.9
20260507130018 14 45 16.1 0.0 0.00 0.00 0.00 66 1061.9
20260507125909 14 45 0.0 0.0 0.00 0.00 0.00 66 1061.9
20260507125805 14 45 9.7 0.0 0.00 0.00 0.00 66 1061.9
20260507125659 14 67 14.5 0.0 0.00 0.00 0.00 66 1061.9
20260507125546 14 0 1.6 0.0 0.00 0.00 0.00 66 1061.9
20260507125433 13 67 17.7 0.0 0.00 0.00 0.00 65 1061.8
20260507125320 14 22 8.0 0.0 0.00 0.00 0.00 64 1061.8
20260507125215 14 22 9.7 0.0 0.00 0.00 0.00 64 1061.9
20260507125101 14 22 11.3 0.0 0.00 0.00 0.00 65 1061.8
20260507124948 14 45 0.0 0.0 0.00 0.00 0.00 65 1061.9
20260507124826 14 0 0.0 0.0 0.00 0.00 0.00 64 1061.8
20260507124713 14 0 14.5 0.0 0.00 0.00 0.00 64 1061.8
20260507124609 14 22 16.1 0.0 0.00 0.00 0.00 63 1061.9
20260507124503 14 22 4.8 0.0 0.00 0.00 0.00 63 1061.8
20260507124358 14 337 8.0 0.0 0.00 0.00 0.00 64 1061.9
20260507124245 14 0 9.7 0.0 0.00 0.00 0.00 64 1061.9
20260507124142 14 22 0.0 0.0 0.00 0.00 0.00 64 1061.9
20260507124034 14 22 16.1 0.0 0.00 0.00 0.00 63 1061.9
20260507123922 14 67 11.3 0.0 0.00 0.00 0.00 63 1061.9
20260507123809 15 22 8.0 0.0 0.00 0.00 0.00 62 1061.9
20260507123704 15 45 12.9 0.0 0.00 0.00 0.00 62 1061.9
20260507123551 15 45 3.2 0.0 0.00 0.00 0.00 61 1061.9
20260507123437 15 0 16.1 0.0 0.00 0.00 0.00 61 1061.9
20260507123317 15 90 0.0 0.0 0.00 0.00 0.00 61 1061.9
20260507123211 15 45 9.7 0.0 0.00 0.00 0.00 60 1061.9
20260507123050 15 0 6.4 0.0 0.00 0.00 0.00 61 1061.9
20260507122936 15 0 9.7 0.0 0.00 0.00 0.00 60 1061.8
20260507122824 15 22 0.0 0.0 0.00 0.00 0.00 59 1061.8
20260507122710 15 337 12.9 0.0 0.00 0.00 0.00 59 1061.9
20260507122557 15 22 14.5 0.0 0.00 0.00 0.00 59 1061.9
20260507122438 16 22 6.4 0.0 0.00 0.00 0.00 58 1061.9
20260507122331 16 67 12.9 0.0 0.00 0.00 0.00 58 1061.9
20260507122217 16 45 11.3 0.0 0.00 0.00 0.00 57 1061.9
20260507122105 16 337 14.5 0.0 0.00 0.00 0.00 57 1061.9
20260507121952 16 22 8.0 0.0 0.00 0.00 0.00 57 1062.0
20260507121838 16 0 8.0 0.0 0.00 0.00 0.00 57 1061.9
20260507121725 16 0 9.7 0.0 0.00 0.00 0.00 57 1061.9
20260507121619 16 0 11.3 0.0 0.00 0.00 0.00 57 1061.9
20260507121458 16 45 6.4 0.0 0.00 0.00 0.00 56 1062.0
20260507121346 16 0 11.3 0.0 0.00 0.00 0.00 58 1061.9
20260507121233 16 0 0.0 0.0 0.00 0.00 0.00 57 1061.9
20260507121127 16 0 9.7 0.0 0.00 0.00 0.00 57 1061.8
20260507121016 17 22 3.2 0.0 0.00 0.00 0.00 56 1061.9
20260507120909 16 45 9.7 0.0 0.00 0.00 0.00 57 1061.9
20260507120758 16 45 4.8 0.0 0.00 0.00 0.00 57 1061.8
20260507120646 17 0 9.7 0.0 0.00 0.00 0.00 56 1061.9
20260507120537 17 0 12.9 0.0 0.00 0.00 0.00 57 1061.9
20260507120425 17 45 6.4 0.0 0.00 0.00 0.00 56 1061.9
20260507120319 17 22 11.3 0.0 0.00 0.00 0.00 56 1061.9
20260507120158 17 45 8.0 0.0 0.00 0.00 0.00 55 1061.9
20260507120045 17 22 12.9 0.0 0.00 0.00 0.00 55 1061.9
20260507115932 17 67 16.1 0.0 0.00 0.00 0.00 55 1062.0
20260507115827 17 0 9.7 0.0 0.00 0.00 0.00 57 1061.9
20260507115700 17 22 8.0 0.0 0.00 0.00 0.00 57 1061.8
20260507115555 17 90 0.0 0.0 0.00 0.00 0.00 56 1061.9
20260507115446 17 45 16.1 0.0 0.00 0.00 0.00 58 1061.9
20260507115331 17 0 9.7 0.0 0.00 0.00 0.00 58 1061.9
20260507115201 17 0 16.1 0.0 0.00 0.00 0.00 58 1061.8
20260507115048 16 67 12.9 0.0 0.00 0.00 0.00 58 1061.9
20260507114943 16 112 9.7 0.0 0.00 0.00 0.00 58 1061.9
20260507114817 16 45 9.7 0.0 0.00 0.00 0.00 58 1061.9
20260507114709 16 45 11.3 0.0 0.00 0.00 0.00 58 1061.9
20260507114555 16 45 19.3 0.0 0.00 0.00 0.00 59 1061.9
20260507114436 16 0 6.4 0.0 0.00 0.00 0.00 58 1061.8
20260507114322 16 22 11.3 0.0 0.00 0.00 0.00 58 1061.8
20260507114207 16 0 16.1 0.0 0.00 0.00 0.00 58 1061.9
20260507114054 16 0 9.7 0.0 0.00 0.00 0.00 58 1061.9
20260507113933 16 22 0.0 0.0 0.00 0.00 0.00 58 1061.9
20260507113813 16 45 19.3 0.0 0.00 0.00 0.00 58 1061.8
20260507113707 16 22 6.4 0.0 0.00 0.00 0.00 59 1061.8
20260507113553 16 67 14.5 0.0 0.00 0.00 0.00 59 1061.9
20260507113434 16 22 0.0 0.0 0.00 0.00 0.00 59 1061.9
20260507113327 16 45 17.7 0.0 0.00 0.00 0.00 58 1061.9
20260507113152 16 0 9.7 0.0 0.00 0.00 0.00 59 1061.9
20260507113047 16 22 12.9 0.0 0.00 0.00 0.00 58 1061.9
20260507112940 16 0 11.3 0.0 0.00 0.00 0.00 58 1061.9
20260507112820 16 0 19.3 0.0 0.00 0.00 0.00 57 1061.9
20260507112709 16 0 8.0 0.0 0.00 0.00 0.00 59 1061.9
20260507112553 16 45 0.0 0.0 0.00 0.00 0.00 58 1061.9
20260507112424 16 337 9.7 0.0 0.00 0.00 0.00 59 1061.9
20260507112310 16 22 8.0 0.0 0.00 0.00 0.00 59 1061.8
20260507112141 16 337 19.3 0.0 0.00 0.00 0.00 60 1061.9
20260507112022 16 0 9.7 0.0 0.00 0.00 0.00 60 1061.8
20260507111915 16 67 9.7 0.0 0.00 0.00 0.00 59 1061.8
20260507111803 16 0 9.7 0.0 0.00 0.00 0.00 60 1061.8
20260507111651 16 22 0.0 0.0 0.00 0.00 0.00 59 1061.8
20260507111544 16 90 14.5 0.0 0.00 0.00 0.00 60 1061.8
20260507111431 16 22 14.5 0.0 0.00 0.00 0.00 60 1061.8
20260507111312 16 22 9.7 0.0 0.00 0.00 0.00 60 1061.8
20260507111207 16 0 0.0 0.0 0.00 0.00 0.00 61 1061.9
20260507111051 16 22 0.0 0.0 0.00 0.00 0.00 60 1061.8
20260507110938 16 67 12.9 0.0 0.00 0.00 0.00 60 1061.9
20260507110811 16 0 9.7 0.0 0.00 0.00 0.00 60 1061.8
20260507110706 16 22 16.1 0.0 0.00 0.00 0.00 61 1061.8